| time (UTC) | temp C | wind direction | speed KPH | gust KPH | rain 1hr cm | rain 24hr cm | rain mn cm | humidity % | barometer mb |
| 20260905111434 | 20 | 32 | 0.0 | 8.0 | 0.00 | 0.00 | 0.00 | 97 | 1015.7 |
| 20260905111207 | 20 | 32 | 0.0 | 8.0 | 0.00 | 0.00 | 0.00 | 97 | 1015.6 |
| 20260905111116 | 20 | 32 | 0.0 | 8.0 | 0.00 | 0.00 | 0.00 | 97 | 1015.6 |
| 20260905111012 | 20 | 32 | 0.0 | 8.0 | 0.00 | 0.00 | 0.00 | 97 | 1015.6 |
| 20260905110735 | 20 | 31 | 0.0 | 8.0 | 0.00 | 0.00 | 0.00 | 97 | 1015.7 |
| 20260905110633 | 20 | 61 | 0.0 | 4.8 | 0.00 | 0.00 | 0.00 | 97 | 1015.7 |
| 20260905110437 | 20 | 58 | 0.0 | 4.8 | 0.00 | 0.00 | 0.00 | 97 | 1015.8 |
| 20260905110331 | 20 | 58 | 0.0 | 4.8 | 0.00 | 0.00 | 0.00 | 97 | 1015.7 |
| 20260905110131 | 20 | 59 | 0.0 | 4.8 | 0.00 | 0.00 | 0.00 | 97 | 1015.7 |
| 20260905105940 | 20 | 0 | 0.0 | 3.2 | 0.00 | 0.00 | 0.00 | 97 | 1015.9 |
| 20260905105710 | 20 | 0 | 0.0 | 3.2 | 0.00 | 0.00 | 0.00 | 97 | 1015.8 |
| 20260905105608 | 20 | 0 | 0.0 | 4.8 | 0.00 | 0.00 | 0.00 | 97 | 1015.7 |
| 20260905105410 | 20 | 0 | 0.0 | 4.8 | 0.00 | 0.00 | 0.00 | 97 | 1015.8 |
| 20260905105309 | 20 | 0 | 0.0 | 4.8 | 0.00 | 0.00 | 0.00 | 97 | 1015.8 |
| 20260905105112 | 20 | 329 | 0.0 | 4.8 | 0.00 | 0.00 | 0.00 | 97 | 1015.7 |
| 20260905104906 | 20 | 330 | 0.0 | 4.8 | 0.00 | 0.00 | 0.00 | 97 | 1015.7 |
| 20260905104709 | 20 | 329 | 0.0 | 4.8 | 0.00 | 0.00 | 0.00 | 97 | 1015.7 |
| 20260905104608 | 20 | 37 | 0.0 | 4.8 | 0.00 | 0.00 | 0.00 | 97 | 1015.7 |
| 20260905104410 | 20 | 37 | 0.0 | 4.8 | 0.00 | 0.00 | 0.00 | 97 | 1015.6 |
| 20260905104307 | 20 | 37 | 0.0 | 6.4 | 0.00 | 0.00 | 0.00 | 97 | 1015.6 |
| 20260905104145 | 20 | 35 | 0.0 | 6.4 | 0.00 | 0.00 | 0.00 | 97 | 1015.6 |
| 20260905103836 | 20 | 56 | 0.0 | 6.4 | 0.00 | 0.00 | 0.00 | 97 | 1015.4 |
| 20260905103641 | 20 | 54 | 0.0 | 6.4 | 0.00 | 0.00 | 0.00 | 97 | 1015.4 |
| 20260905103431 | 20 | 72 | 0.0 | 6.4 | 0.00 | 0.00 | 0.00 | 97 | 1015.5 |
| 20260905103334 | 20 | 86 | 0.0 | 6.4 | 0.00 | 0.00 | 0.00 | 97 | 1015.6 |
| 20260905103233 | 20 | 42 | 0.0 | 6.4 | 0.00 | 0.00 | 0.00 | 97 | 1015.6 |
| 20260905103210 | 20 | 47 | 0.0 | 8.0 | 0.00 | 0.00 | 0.00 | 97 | 1015.5 |
| 20260905103117 | 20 | 45 | 0.0 | 9.7 | 0.00 | 0.00 | 0.00 | 97 | 1015.5 |
| 20260905102831 | 20 | 59 | 0.0 | 9.7 | 0.00 | 0.00 | 0.00 | 97 | 1015.5 |
| 20260905102731 | 20 | 41 | 0.0 | 9.7 | 0.00 | 0.00 | 0.00 | 97 | 1015.4 |
| 20260905102431 | 20 | 38 | 0.0 | 9.7 | 0.00 | 0.00 | 0.00 | 97 | 1015.5 |
| 20260905102339 | 20 | 39 | 0.0 | 9.7 | 0.00 | 0.00 | 0.00 | 97 | 1015.4 |
| 20260905102233 | 20 | 37 | 0.0 | 9.7 | 0.00 | 0.00 | 0.00 | 97 | 1015.5 |
| 20260905102108 | 20 | 0 | 0.0 | 9.7 | 0.00 | 0.00 | 0.00 | 97 | 1015.5 |
| 20260905102047 | -17 | 0.0 | 0.0 | 0.00 | 0.00 | 0.00 | 1015.5 | ||
| 20260905101542 | -17 | 0.0 | 0.0 | 0.00 | 0.00 | 0.00 | |||
| 20260905101534 | -17 | 0.0 | 0.0 | 0.00 | 0.00 | 0.00 | |||
| 20260905101307 | -17 | 0.0 | 0.0 | 0.00 | 0.00 | 0.00 | |||
| 20260905101248 | -17 | 0.0 | 0.0 | 0.00 | 0.00 | 0.00 | |||
| 20260905100809 | -17 | 0.0 | 0.0 | 0.00 | 0.00 | 0.00 | |||
| 20260905100605 | -17 | 0.0 | 0.0 | 0.00 | 0.00 | 0.00 | |||
| 20260905100516 | -17 | 0.0 | 0.0 | 0.00 | 0.00 | 0.00 | 1015.4 | ||
| 20260905100507 | -17 | 0.0 | 0.0 | 0.00 | 0.00 | 0.00 | |||
| 20260905100247 | 20 | 41 | 0.0 | 3.2 | 0.00 | 0.00 | 0.00 | 97 | 1015.4 |
| 20260905100212 | 20 | 41 | 0.0 | 3.2 | 0.00 | 0.00 | 0.00 | 97 | 1015.4 |
| 20260905100208 | -17 | 0.0 | 0.0 | 0.00 | 0.00 | 0.00 | 1015.4 | ||
| 20260905095734 | 20 | 41 | 0.0 | 6.4 | 0.00 | 0.00 | 0.00 | 97 | 1015.4 |
| 20260905095509 | 20 | 41 | 0.0 | 6.4 | 0.00 | 0.00 | 0.00 | 97 | 1015.4 |
| 20260905095432 | 20 | 41 | 0.0 | 6.4 | 0.00 | 0.00 | 0.00 | 97 | 1015.5 |
| 20260905095314 | 20 | 41 | 0.0 | 6.4 | 0.00 | 0.00 | 0.00 | 97 | 1015.4 |
| 20260905095218 | 20 | 41 | 0.0 | 6.4 | 0.00 | 0.00 | 0.00 | 97 | 1015.2 |
| 20260905095214 | 20 | 59 | 0.0 | 6.4 | 0.00 | 0.00 | 0.00 | 97 | 1015.1 |
| 20260905095201 | 20 | 41 | 0.0 | 6.4 | 0.00 | 0.00 | 0.00 | 97 | 1015.2 |
| 20260905094706 | 20 | 38 | 0.0 | 3.2 | 0.00 | 0.00 | 0.00 | 97 | 1014.7 |
| 20260905094611 | 20 | 8 | 0.0 | 1.6 | 0.00 | 0.00 | 0.00 | 97 | 1014.6 |
| 20260905094435 | 20 | 8 | 0.0 | 1.6 | 0.00 | 0.00 | 0.00 | 97 | 1014.6 |
| 20260905094313 | 20 | 8 | 0.0 | 1.6 | 0.00 | 0.00 | 0.00 | 97 | 1014.6 |
| 20260905094038 | 20 | 7 | 0.0 | 1.6 | 0.00 | 0.00 | 0.00 | 97 | 1014.6 |
| 20260905093926 | 20 | 8 | 0.0 | 3.2 | 0.00 | 0.00 | 0.00 | 97 | 1014.6 |
| 20260905093837 | 20 | 8 | 0.0 | 4.8 | 0.00 | 0.00 | 0.00 | 97 | 1014.6 |
| 20260905093743 | 20 | 8 | 0.0 | 4.8 | 0.00 | 0.00 | 0.00 | 97 | 1014.5 |
| 20260905093707 | 20 | 10 | 0.0 | 4.8 | 0.00 | 0.00 | 0.00 | 97 | 1014.5 |
| 20260905093700 | 20 | 8 | 0.0 | 4.8 | 0.00 | 0.00 | 0.00 | 97 | 1014.7 |
| 20260905093241 | 20 | 350 | 0.0 | 4.8 | 0.00 | 0.00 | 0.00 | 97 | 1014.6 |
| 20260905093039 | 20 | 350 | 0.0 | 4.8 | 0.00 | 0.00 | 0.00 | 97 | 1014.6 |
| 20260905092914 | 20 | 347 | 0.0 | 4.8 | 0.00 | 0.00 | 0.00 | 97 | 1014.6 |
| 20260905092809 | 20 | 14 | 0.0 | 4.8 | 0.00 | 0.00 | 0.00 | 97 | 1014.6 |
| 20260905092703 | 20 | 38 | 0.0 | 4.8 | 0.00 | 0.00 | 0.00 | 97 | 1014.6 |
| 20260905092652 | 20 | 18 | 0.0 | 4.8 | 0.00 | 0.00 | 0.00 | 97 | 1014.7 |
| 20260905092624 | 20 | 38 | 0.0 | 4.8 | 0.00 | 0.00 | 0.00 | 97 | 1014.6 |
| 20260905092211 | 20 | 38 | 0.0 | 4.8 | 0.00 | 0.00 | 0.00 | 97 | 1014.6 |
| 20260905092010 | 20 | 16 | 0.0 | 4.8 | 0.00 | 0.00 | 0.00 | 97 | 1014.7 |
| 20260905091921 | 20 | 14 | 0.0 | 4.8 | 0.00 | 0.00 | 0.00 | 97 | 1014.7 |
| 20260905091911 | 20 | 16 | 0.0 | 4.8 | 0.00 | 0.00 | 0.00 | 97 | 1014.7 |
| 20260905091709 | 20 | 14 | 0.0 | 4.8 | 0.00 | 0.00 | 0.00 | 97 | 1014.8 |
| 20260905091650 | 20 | 16 | 0.0 | 4.8 | 0.00 | 0.00 | 0.00 | 97 | 1014.7 |
| 20260905091211 | 20 | 6 | 0.0 | 4.8 | 0.00 | 0.00 | 0.00 | 97 | 1014.8 |
| 20260905091009 | 20 | 6 | 0.0 | 4.8 | 0.00 | 0.00 | 0.00 | 97 | 1014.8 |
| 20260905090910 | 20 | 6 | 0.0 | 4.8 | 0.00 | 0.00 | 0.00 | 97 | 1014.8 |
| 20260905090810 | 20 | 6 | 0.0 | 4.8 | 0.00 | 0.00 | 0.00 | 97 | 1015.0 |
| 20260905090610 | 20 | 6 | 0.0 | 4.8 | 0.00 | 0.00 | 0.00 | 97 | 1015.0 |
| 20260905090521 | 20 | 6 | 0.0 | 4.8 | 0.00 | 0.00 | 0.00 | 97 | 1015.1 |
| 20260905090413 | 20 | 6 | 0.0 | 4.8 | 0.00 | 0.00 | 0.00 | 97 | 1015.1 |
| 20260905090210 | 20 | 3 | 0.0 | 3.2 | 0.00 | 0.00 | 0.00 | 96 | 1015.0 |
| 20260905090113 | 20 | 3 | 0.0 | 4.8 | 0.00 | 0.00 | 0.00 | 96 | 1015.1 |
| 20260905085910 | 20 | 3 | 0.0 | 4.8 | 0.00 | 0.00 | 0.00 | 96 | 1015.1 |
| 20260905085809 | 20 | 3 | 0.0 | 4.8 | 0.00 | 0.00 | 0.00 | 96 | 1015.1 |
| 20260905085657 | 20 | 3 | 0.0 | 4.8 | 0.00 | 0.00 | 0.00 | 96 | 1015.1 |
| 20260905085648 | 20 | 3 | 0.0 | 4.8 | 0.00 | 0.00 | 0.00 | 96 | 1015.2 |
| 20260905085622 | 20 | 3 | 0.0 | 4.8 | 0.00 | 0.00 | 0.00 | 96 | 1015.1 |
| 20260905085211 | 20 | 3 | 0.0 | 4.8 | 0.00 | 0.00 | 0.00 | 96 | 1015.3 |
| 20260905085110 | 20 | 0 | 0.0 | 4.8 | 0.00 | 0.00 | 0.00 | 96 | 1015.3 |
| 20260905084911 | 19 | 14 | 0.0 | 4.8 | 0.00 | 0.00 | 0.00 | 96 | 1015.1 |
| 20260905084810 | 19 | 16 | 0.0 | 4.8 | 0.00 | 0.00 | 0.00 | 96 | 1015.2 |
| 20260905084714 | 19 | 4 | 0.0 | 6.4 | 0.00 | 0.00 | 0.00 | 96 | 1015.1 |
| 20260905084658 | 19 | 11 | 0.0 | 4.8 | 0.00 | 0.00 | 0.00 | 96 | 1015.2 |
| 20260905084626 | 19 | 4 | 0.0 | 6.4 | 0.00 | 0.00 | 0.00 | 96 | 1015.1 |
| 20260905084210 | 19 | 30 | 0.0 | 6.4 | 0.00 | 0.00 | 0.00 | 96 | 1015.1 |
| 20260905084104 | 19 | 7 | 0.0 | 6.4 | 0.00 | 0.00 | 0.00 | 96 | 1015.2 |
| 20260905083910 | 19 | 8 | 0.0 | 6.4 | 0.00 | 0.00 | 0.00 | 96 | 1015.1 |
| 20260905083809 | 19 | 7 | 0.0 | 6.4 | 0.00 | 0.00 | 0.00 | 96 | 1015.2 |
| 20260905083757 | 19 | 51 | 0.0 | 6.4 | 0.00 | 0.00 | 0.00 | 96 | 1015.2 |
| 20260905083704 | 19 | 23 | 0.0 | 4.8 | 0.00 | 0.00 | 0.00 | 96 | 1015.2 |
| 20260905083624 | 19 | 23 | 0.0 | 4.8 | 0.00 | 0.00 | 0.00 | 96 | 1015.2 |
| 20260905083211 | 19 | 21 | 0.0 | 4.8 | 0.00 | 0.00 | 0.00 | 96 | 1015.2 |
| 20260905083010 | 19 | 16 | 0.0 | 4.8 | 0.00 | 0.00 | 0.00 | 96 | 1015.2 |
| 20260905082914 | 19 | 16 | 0.0 | 4.8 | 0.00 | 0.00 | 0.00 | 96 | 1015.1 |
| 20260905082812 | 19 | 16 | 0.0 | 4.8 | 0.00 | 0.00 | 0.00 | 96 | 1015.2 |
| 20260905082802 | 19 | 14 | 0.0 | 4.8 | 0.00 | 0.00 | 0.00 | 96 | 1015.1 |
| 20260905082715 | 19 | 14 | 0.0 | 4.8 | 0.00 | 0.00 | 0.00 | 96 | 1015.1 |
| 20260905082628 | 19 | 14 | 0.0 | 4.8 | 0.00 | 0.00 | 0.00 | 96 | 1015.1 |
| 20260905082309 | 19 | 21 | 0.0 | 1.6 | 0.00 | 0.00 | 0.00 | 96 | 1015.1 |
| 20260905082014 | 19 | 27 | 0.0 | 1.6 | 0.00 | 0.00 | 0.00 | 96 | 1015.1 |
| 20260905081910 | 19 | 25 | 0.0 | 1.6 | 0.00 | 0.00 | 0.00 | 96 | 1015.1 |
| 20260905081811 | 19 | 25 | 0.0 | 1.6 | 0.00 | 0.00 | 0.00 | 96 | 1015.2 |
| 20260905081713 | 19 | 25 | 0.0 | 1.6 | 0.00 | 0.00 | 0.00 | 96 | 1015.2 |
| 20260905081657 | 19 | 25 | 0.0 | 1.6 | 0.00 | 0.00 | 0.00 | 96 | 1015.2 |
| 20260905081624 | 19 | 25 | 0.0 | 1.6 | 0.00 | 0.00 | 0.00 | 96 | 1015.2 |
| 20260905081310 | 19 | 25 | 0.0 | 1.6 | 0.00 | 0.00 | 0.00 | 96 | 1015.2 |
| 20260905081011 | 19 | 25 | 0.0 | 1.6 | 0.00 | 0.00 | 0.00 | 96 | 1015.2 |
| 20260905080923 | 19 | 25 | 0.0 | 1.6 | 0.00 | 0.00 | 0.00 | 95 | 1015.3 |
| 20260905080914 | 19 | 27 | 0.0 | 1.6 | 0.00 | 0.00 | 0.00 | 95 | 1015.2 |
| 20260905080700 | 19 | 25 | 0.0 | 1.6 | 0.00 | 0.00 | 0.00 | 95 | 1015.3 |
| 20260905080652 | 19 | 25 | 0.0 | 1.6 | 0.00 | 0.00 | 0.00 | 95 | 1015.2 |
| 20260905080626 | 19 | 25 | 0.0 | 1.6 | 0.00 | 0.00 | 0.00 | 95 | 1015.3 |
| 20260905080211 | 19 | 25 | 0.0 | 1.6 | 0.00 | 0.00 | 0.00 | 95 | 1015.3 |
| 20260905080010 | 19 | 25 | 0.0 | 0.0 | 0.00 | 0.00 | 0.00 | 95 | 1015.4 |
| 20260905075921 | 19 | 25 | 0.0 | 0.0 | 0.00 | 0.00 | 0.00 | 95 | 1015.3 |
| 20260905075912 | 19 | 27 | 0.0 | 0.0 | 0.00 | 0.00 | 0.00 | 95 | 1015.3 |
| 20260905075704 | 19 | 25 | 0.0 | 0.0 | 0.00 | 0.00 | 0.00 | 95 | 1015.3 |
| 20260905075652 | 19 | 25 | 0.0 | 0.0 | 0.00 | 0.00 | 0.00 | 95 | 1015.3 |
| 20260905075208 | 20 | 25 | 0.0 | 0.0 | 0.00 | 0.00 | 0.00 | 95 | 1015.2 |
| 20260905075008 | 20 | 25 | 0.0 | 1.6 | 0.00 | 0.00 | 0.00 | 95 | 1015.4 |
| 20260905074916 | 20 | 25 | 0.0 | 1.6 | 0.00 | 0.00 | 0.00 | 95 | 1015.4 |
| 20260905074810 | 20 | 25 | 0.0 | 1.6 | 0.00 | 0.00 | 0.00 | 95 | 1015.4 |
| 20260905074709 | 20 | 27 | 0.0 | 1.6 | 0.00 | 0.00 | 0.00 | 95 | 1015.3 |
| 20260905074657 | 20 | 25 | 0.0 | 1.6 | 0.00 | 0.00 | 0.00 | 95 | 1015.4 |
| 20260905074211 | 20 | 27 | 0.0 | 1.6 | 0.00 | 0.00 | 0.00 | 95 | 1015.3 |
| 20260905074109 | 20 | 25 | 0.0 | 1.6 | 0.00 | 0.00 | 0.00 | 95 | 1015.3 |
| 20260905073905 | 20 | 25 | 0.0 | 1.6 | 0.00 | 0.00 | 0.00 | 95 | 1015.4 |
| 20260905073810 | 20 | 27 | 0.0 | 1.6 | 0.00 | 0.00 | 0.00 | 95 | 1015.4 |
| 20260905073610 | 20 | 27 | 0.0 | 0.0 | 0.00 | 0.00 | 0.00 | 95 | 1015.4 |
| 20260905073429 | 20 | 27 | 0.0 | 0.0 | 0.00 | 0.00 | 0.00 | 95 | 1015.5 |
| 20260905073420 | 20 | 25 | 0.0 | 0.0 | 0.00 | 0.00 | 0.00 | 95 | 1015.5 |
| 20260905073234 | 20 | 27 | 0.0 | 0.0 | 0.00 | 0.00 | 0.00 | 95 | 1015.5 |
| 20260905073207 | 20 | 25 | 0.0 | 0.0 | 0.00 | 0.00 | 0.00 | 95 | 1015.5 |
| 20260905073153 | 20 | 25 | 0.0 | 1.6 | 0.00 | 0.00 | 0.00 | 95 | 1015.4 |
| 20260905072806 | 20 | 25 | 0.0 | 1.6 | 0.00 | 0.00 | 0.00 | 95 | 1015.4 |
| 20260905072604 | 20 | 27 | 0.0 | 1.6 | 0.00 | 0.00 | 0.00 | 95 | 1015.3 |
| 20260905072407 | 20 | 25 | 0.0 | 1.6 | 0.00 | 0.00 | 0.00 | 95 | 1015.3 |
| 20260905072306 | 20 | 25 | 0.0 | 1.6 | 0.00 | 0.00 | 0.00 | 95 | 1015.2 |
| 20260905072154 | 20 | 25 | 0.0 | 1.6 | 0.00 | 0.00 | 0.00 | 95 | 1015.4 |
| 20260905072149 | 20 | 25 | 0.0 | 0.0 | 0.00 | 0.00 | 0.00 | 95 | 1015.4 |
| 20260905072135 | 20 | 25 | 0.0 | 1.6 | 0.00 | 0.00 | 0.00 | 95 | 1015.3 |
| 20260905071605 | -17 | 0.0 | 0.0 | 0.00 | 0.00 | 0.00 | 1015.5 | ||
| 20260905071406 | -17 | 0.0 | 0.0 | 0.00 | 0.00 | 0.00 | 1015.4 | ||
| 20260905071135 | -17 | 0.0 | 0.0 | 0.00 | 0.00 | 0.00 | |||
| 20260905071047 | -17 | 0.0 | 0.0 | 0.00 | 0.00 | 0.00 | |||
| 20260905071043 | -17 | 0.0 | 0.0 | 0.00 | 0.00 | 0.00 | |||
| 20260905071033 | -17 | 0.0 | 0.0 | 0.00 | 0.00 | 0.00 | |||
| 20260905070534 | -17 | 0.0 | 0.0 | 0.00 | 0.00 | 0.00 | |||
| 20260905070437 | -17 | 0.0 | 0.0 | 0.00 | 0.00 | 0.00 | |||
| 20260905070303 | -17 | 0.0 | 0.0 | 0.00 | 0.00 | 0.00 | |||
| 20260905070107 | -17 | 0.0 | 0.0 | 0.00 | 0.00 | 0.00 | 1015.4 | ||
| 20260905065907 | -17 | 0.0 | 0.0 | 0.00 | 0.00 | 0.00 | 1015.4 | ||
| 20260905065809 | -17 | 0.0 | 0.0 | 0.00 | 0.00 | 0.00 | 1015.4 | ||
| 20260905065706 | -17 | 0.0 | 0.0 | 0.00 | 0.00 | 0.00 | 1015.4 | ||
| 20260905065435 | 20 | 25 | 0.0 | 0.0 | 0.00 | 0.00 | 0.00 | 94 | 1015.4 |
| 20260905065345 | 20 | 25 | 0.0 | 0.0 | 0.00 | 0.00 | 0.00 | 94 | 1015.4 |
| 20260905065240 | 20 | 25 | 0.0 | 0.0 | 0.00 | 0.00 | 0.00 | 94 | 1015.4 |
| 20260905065023 | 20 | 25 | 0.0 | 0.0 | 0.00 | 0.00 | 0.00 | 94 | 1015.5 |
| 20260905064922 | 20 | 25 | 0.0 | 0.0 | 0.00 | 0.00 | 0.00 | 94 | 1015.4 |
| 20260905064724 | 20 | 25 | 0.0 | 0.0 | 0.00 | 0.00 | 0.00 | 94 | 1015.5 |
| 20260905064622 | 20 | 25 | 0.0 | 0.0 | 0.00 | 0.00 | 0.00 | 94 | 1015.4 |
| 20260905064421 | -17 | 27 | 0.0 | 0.0 | 0.00 | 0.00 | 0.00 | 1015.4 | |
| 20260905064329 | -17 | 0.0 | 0.0 | 0.00 | 0.00 | 0.00 | 1015.5 | ||
| 20260905064223 | -17 | 0.0 | 0.0 | 0.00 | 0.00 | 0.00 | 1015.5 | ||
| 20260905063809 | -17 | 0.0 | 0.0 | 0.00 | 0.00 | 0.00 | |||
| 20260905063705 | -17 | 0.0 | 0.0 | 0.00 | 0.00 | 0.00 | |||
| 20260905063334 | -17 | 0.0 | 0.0 | 0.00 | 0.00 | 0.00 | |||
| 20260905063233 | -17 | 0.0 | 0.0 | 0.00 | 0.00 | 0.00 | |||
| 20260905063135 | -17 | 0.0 | 0.0 | 0.00 | 0.00 | 0.00 | |||
| 20260905062934 | -17 | 0.0 | 0.0 | 0.00 | 0.00 | 0.00 | |||
| 20260905062734 | -17 | 0.0 | 0.0 | 0.00 | 0.00 | 0.00 | 1015.3 | ||
| 20260905062606 | -17 | 0.0 | 0.0 | 0.00 | 0.00 | 0.00 | 1015.3 | ||
| 20260905062307 | 20 | 25 | 0.0 | 0.0 | 0.00 | 0.00 | 0.00 | 94 | 1015.3 |
| 20260905062216 | 20 | 25 | 0.0 | 0.0 | 0.00 | 0.00 | 0.00 | 94 | 1015.3 |
| 20260905062208 | 20 | 25 | 0.0 | 0.0 | 0.00 | 0.00 | 0.00 | 94 | 1015.3 |
| 20260905061946 | 20 | 25 | 0.0 | 0.0 | 0.00 | 0.00 | 0.00 | 94 | 1015.3 |
| 20260905061939 | 20 | 25 | 0.0 | 0.0 | 0.00 | 0.00 | 0.00 | 94 | 1015.3 |
| 20260905061916 | 20 | 25 | 0.0 | 0.0 | 0.00 | 0.00 | 0.00 | 94 | 1015.3 |
| 20260905061502 | 20 | 25 | 0.0 | 0.0 | 0.00 | 0.00 | 0.00 | 94 | 1015.3 |
| 20260905061259 | 20 | 25 | 0.0 | 0.0 | 0.00 | 0.00 | 0.00 | 93 | 1015.3 |
| 20260905061215 | 20 | 27 | 0.0 | 0.0 | 0.00 | 0.00 | 0.00 | 93 | 1015.2 |
| 20260905061200 | 20 | 25 | 0.0 | 0.0 | 0.00 | 0.00 | 0.00 | 93 | 1015.4 |
| 20260905060949 | 20 | 27 | 0.0 | 3.2 | 0.00 | 0.00 | 0.00 | 93 | 1015.2 |
| 20260905060939 | 20 | 25 | 0.0 | 3.2 | 0.00 | 0.00 | 0.00 | 93 | 1015.3 |
| 20260905060506 | 20 | 25 | 0.0 | 3.2 | 0.00 | 0.00 | 0.00 | 93 | 1015.3 |
| 20260905060459 | 20 | 24 | 0.0 | 3.2 | 0.00 | 0.00 | 0.00 | 93 | 1015.3 |
| 20260905060201 | 20 | 25 | 0.0 | 3.2 | 0.00 | 0.00 | 0.00 | 93 | 1015.2 |
| 20260905060100 | 20 | 25 | 0.0 | 1.6 | 0.00 | 0.00 | 0.00 | 93 | 1015.3 |
| 20260905055935 | 20 | 25 | 0.0 | 0.0 | 0.00 | 0.00 | 0.00 | 93 | 1015.2 |
| 20260905055915 | -17 | 0.0 | 0.0 | 0.00 | 0.00 | 0.00 | 1015.2 | ||
| 20260905055406 | -17 | 0.0 | 0.0 | 0.00 | 0.00 | 0.00 | |||
| 20260905055307 | -17 | 0.0 | 0.0 | 0.00 | 0.00 | 0.00 | |||
| 20260905055114 | -17 | 0.0 | 0.0 | 0.00 | 0.00 | 0.00 | |||
| 20260905055051 | -17 | 0.0 | 0.0 | 0.00 | 0.00 | 0.00 | |||
| 20260905054829 | -17 | 0.0 | 0.0 | 0.00 | 0.00 | 0.00 | |||
| 20260905054438 | -17 | 0.0 | 0.0 | 0.00 | 0.00 | 0.00 | |||
| 20260905054333 | -17 | 0.0 | 0.0 | 0.00 | 0.00 | 0.00 | |||
| 20260905054234 | -17 | 0.0 | 0.0 | 0.00 | 0.00 | 0.00 | 1015.2 | ||
| 20260905054008 | -17 | 0.0 | 0.0 | 0.00 | 0.00 | 0.00 | 1015.2 | ||
| 20260905053806 | 21 | 25 | 0.0 | 0.0 | 0.00 | 0.00 | 0.00 | 92 | 1015.2 |
| 20260905053607 | 21 | 25 | 0.0 | 0.0 | 0.00 | 0.00 | 0.00 | 92 | 1015.2 |
| 20260905053412 | 21 | 25 | 0.0 | 0.0 | 0.00 | 0.00 | 0.00 | 92 | 1015.2 |
| 20260905053406 | 21 | 25 | 0.0 | 0.0 | 0.00 | 0.00 | 0.00 | 92 | 1015.2 |
| 20260905053304 | 21 | 25 | 0.0 | 0.0 | 0.00 | 0.00 | 0.00 | 92 | 1015.2 |
| 20260905053003 | 21 | 25 | 0.0 | 0.0 | 0.00 | 0.00 | 0.00 | 92 | 1015.2 |
| 20260905052804 | 21 | 27 | 0.0 | 0.0 | 0.00 | 0.00 | 0.00 | 92 | 1015.2 |
| 20260905052602 | 21 | 25 | 0.0 | 0.0 | 0.00 | 0.00 | 0.00 | 92 | 1015.1 |
| 20260905052403 | 21 | 27 | 0.0 | 0.0 | 0.00 | 0.00 | 0.00 | 92 | 1015.2 |
| 20260905052306 | 21 | 27 | 0.0 | 0.0 | 0.00 | 0.00 | 0.00 | 92 | 1015.1 |
| 20260905052202 | 21 | 27 | 0.0 | 0.0 | 0.00 | 0.00 | 0.00 | 92 | 1015.1 |
| 20260905052004 | 21 | 25 | 0.0 | 0.0 | 0.00 | 0.00 | 0.00 | 92 | 1015.1 |
| 20260905051910 | 21 | 25 | 0.0 | 0.0 | 0.00 | 0.00 | 0.00 | 92 | 1014.8 |
| 20260905051805 | 21 | 25 | 0.0 | 0.0 | 0.00 | 0.00 | 0.00 | 92 | 1014.8 |
| 20260905051603 | 21 | 27 | 0.0 | 1.6 | 0.00 | 0.00 | 0.00 | 91 | 1015.0 |
| 20260905051402 | 21 | 24 | 0.0 | 1.6 | 0.00 | 0.00 | 0.00 | 92 | 1015.0 |
| 20260905051315 | 21 | 25 | 0.0 | 1.6 | 0.00 | 0.00 | 0.00 | 92 | 1015.0 |
| 20260905051300 | 21 | 25 | 0.0 | 1.6 | 0.00 | 0.00 | 0.00 | 92 | 1014.8 |
| 20260905051002 | 21 | 25 | 0.0 | 1.6 | 0.00 | 0.00 | 0.00 | 91 | 1014.8 |
| 20260905050813 | 21 | 25 | 0.0 | 1.6 | 0.00 | 0.00 | 0.00 | 91 | 1014.8 |
| 20260905050800 | 21 | 25 | 0.0 | 1.6 | 0.00 | 0.00 | 0.00 | 91 | 1014.8 |
| 20260905050602 | 21 | 25 | 0.0 | 0.0 | 0.00 | 0.00 | 0.00 | 91 | 1014.8 |
| 20260905050457 | 21 | 25 | 0.0 | 0.0 | 0.00 | 0.00 | 0.00 | 91 | 1014.8 |
| 20260905050303 | 21 | 24 | 0.0 | 0.0 | 0.00 | 0.00 | 0.00 | 91 | 1014.7 |
| 20260905050200 | 21 | 25 | 0.0 | 0.0 | 0.00 | 0.00 | 0.00 | 91 | 1014.7 |
| 20260905050000 | 21 | 25 | 0.0 | 0.0 | 0.00 | 0.00 | 0.00 | 91 | 1014.7 |
| 20260905045910 | -17 | 0.0 | 0.0 | 0.00 | 0.00 | 0.00 | 1014.8 | ||
| 20260905045802 | -17 | 0.0 | 0.0 | 0.00 | 0.00 | 0.00 | 1014.8 | ||
| 20260905045410 | -17 | 0.0 | 0.0 | 0.00 | 0.00 | 0.00 | |||
| 20260905045331 | -17 | 0.0 | 0.0 | 0.00 | 0.00 | 0.00 | |||
| 20260905045207 | -17 | 0.0 | 0.0 | 0.00 | 0.00 | 0.00 | |||
| 20260905045006 | -17 | 0.0 | 0.0 | 0.00 | 0.00 | 0.00 | |||
| 20260905044909 | -17 | 0.0 | 0.0 | 0.00 | 0.00 | 0.00 | |||
| 20260905044832 | -17 | 0.0 | 0.0 | 0.00 | 0.00 | 0.00 | |||
| 20260905044534 | -17 | 0.0 | 0.0 | 0.00 | 0.00 | 0.00 | |||
| 20260905044341 | -17 | 0.0 | 0.0 | 0.00 | 0.00 | 0.00 | 1014.8 | ||
| 20260905044303 | -17 | 0.0 | 0.0 | 0.00 | 0.00 | 0.00 | 1014.8 | ||
| 20260905044134 | -17 | 0.0 | 0.0 | 0.00 | 0.00 | 0.00 | 1014.8 | ||
| 20260905044048 | 22 | 25 | 0.0 | 1.6 | 0.00 | 0.00 | 0.00 | 90 | 1014.8 |
| 20260905044037 | -17 | 25 | 0.0 | 0.0 | 0.00 | 0.00 | 0.00 | 1014.8 | |
| 20260905043708 | 22 | 25 | 0.0 | 1.6 | 0.00 | 0.00 | 0.00 | 90 | 1014.8 |
| 20260905043649 | 22 | 25 | 0.0 | 1.6 | 0.00 | 0.00 | 0.00 | 90 | 1014.8 |
| 20260905043255 | 22 | 25 | 0.0 | 1.6 | 0.00 | 0.00 | 0.00 | 90 | 1014.7 |
| 20260905043053 | 22 | 25 | 0.0 | 1.6 | 0.00 | 0.00 | 0.00 | 90 | 1014.8 |
| 20260905043040 | 22 | 27 | 0.0 | 1.6 | 0.00 | 0.00 | 0.00 | 90 | 1014.7 |
| 20260905043025 | 22 | 27 | 0.0 | 1.6 | 0.00 | 0.00 | 0.00 | 90 | 1014.8 |
| 20260905042653 | 22 | 27 | 0.0 | 1.6 | 0.00 | 0.00 | 0.00 | 90 | 1014.8 |
| 20260905042453 | 22 | 25 | 0.0 | 0.0 | 0.00 | 0.00 | 0.00 | 90 | 1014.7 |
| 20260905042254 | -17 | 0.0 | 0.0 | 0.00 | 0.00 | 0.00 | 1014.7 | ||
| 20260905042104 | -17 | 0.0 | 0.0 | 0.00 | 0.00 | 0.00 | |||
| 20260905041844 | -17 | 0.0 | 0.0 | 0.00 | 0.00 | 0.00 | |||
| 20260905041431 | -17 | 0.0 | 0.0 | 0.00 | 0.00 | 0.00 | |||
| 20260905041232 | -17 | 0.0 | 0.0 | 0.00 | 0.00 | 0.00 | |||
| 20260905041130 | -17 | 0.0 | 0.0 | 0.00 | 0.00 | 0.00 | |||
| 20260905041031 | -17 | 0.0 | 0.0 | 0.00 | 0.00 | 0.00 | |||
| 20260905040804 | -17 | 0.0 | 0.0 | 0.00 | 0.00 | 0.00 | 1014.8 | ||
| 20260905040618 | 22 | 31 | 0.0 | 0.0 | 0.00 | 0.00 | 0.00 | 89 | 1014.8 |
| 20260905040604 | -17 | 0.0 | 0.0 | 0.00 | 0.00 | 0.00 | 1014.8 | ||
| 20260905040204 | 22 | 31 | 0.0 | 3.2 | 0.00 | 0.00 | 0.00 | 89 | 1014.8 |
| 20260905040116 | 22 | 31 | 0.0 | 3.2 | 0.00 | 0.00 | 0.00 | 89 | 1014.8 |
| 20260905035950 | 22 | 31 | 0.0 | 3.2 | 0.00 | 0.00 | 0.00 | 89 | 1014.8 |
| 20260905035749 | 22 | 31 | 0.0 | 3.2 | 0.00 | 0.00 | 0.00 | 89 | 1014.7 |
| 20260905035551 | 22 | 31 | 0.0 | 3.2 | 0.00 | 0.00 | 0.00 | 89 | 1014.7 |
| 20260905035353 | 22 | 31 | 0.0 | 1.6 | 0.00 | 0.00 | 0.00 | 89 | 1014.7 |
| 20260905035348 | 22 | 31 | 0.0 | 3.2 | 0.00 | 0.00 | 0.00 | 89 | 1014.7 |
| 20260905035039 | 22 | 31 | 0.0 | 3.2 | 0.00 | 0.00 | 0.00 | 89 | 1014.7 |
| 20260905034940 | 22 | 31 | 0.0 | 3.2 | 0.00 | 0.00 | 0.00 | 89 | 1014.7 |
| 20260905034739 | 22 | 31 | 0.0 | 3.2 | 0.00 | 0.00 | 0.00 | 89 | 1014.7 |
| 20260905034544 | 22 | 31 | 0.0 | 3.2 | 0.00 | 0.00 | 0.00 | 89 | 1014.8 |
| 20260905034535 | 22 | 32 | 0.0 | 3.2 | 0.00 | 0.00 | 0.00 | 89 | 1014.8 |
| 20260905034336 | 22 | 31 | 0.0 | 3.2 | 0.00 | 0.00 | 0.00 | 89 | 1014.8 |
| 20260905034135 | 23 | 32 | 0.0 | 3.2 | 0.00 | 0.00 | 0.00 | 89 | 1015.0 |
| 20260905034041 | 23 | 31 | 0.0 | 3.2 | 0.00 | 0.00 | 0.00 | 89 | 1014.8 |
| 20260905033939 | -17 | 31 | 0.0 | 3.2 | 0.00 | 0.00 | 0.00 | 1015.0 | |
| 20260905033933 | 23 | 32 | 0.0 | 3.2 | 0.00 | 0.00 | 0.00 | 89 | 1014.8 |
| 20260905033535 | -17 | 0.0 | 0.0 | 0.00 | 0.00 | 0.00 | 1015.0 | ||
| 20260905033134 | -17 | 0.0 | 0.0 | 0.00 | 0.00 | 0.00 | |||
| 20260905032908 | -17 | 0.0 | 0.0 | 0.00 | 0.00 | 0.00 | |||
| 20260905032831 | -17 | 0.0 | 0.0 | 0.00 | 0.00 | 0.00 | |||
| 20260905032706 | -17 | 0.0 | 0.0 | 0.00 | 0.00 | 0.00 | |||
| 20260905032506 | -17 | 0.0 | 0.0 | 0.00 | 0.00 | 0.00 | |||
| 20260905032306 | -17 | 0.0 | 0.0 | 0.00 | 0.00 | 0.00 | |||
| 20260905032232 | -17 | 0.0 | 0.0 | 0.00 | 0.00 | 0.00 | 1014.6 | ||
| 20260905031835 | -17 | 0.0 | 0.0 | 0.00 | 0.00 | 0.00 | 1014.6 | ||
| 20260905031802 | -17 | 0.0 | 0.0 | 0.00 | 0.00 | 0.00 | 1014.6 | ||
| 20260905031634 | 23 | 34 | 0.0 | 0.0 | 0.00 | 0.00 | 0.00 | 89 | 1014.6 |
| 20260905031435 | 23 | 34 | 0.0 | 0.0 | 0.00 | 0.00 | 0.00 | 89 | 1014.6 |
| 20260905031307 | 23 | 34 | 0.0 | 0.0 | 0.00 | 0.00 | 0.00 | 89 | 1014.6 |
| 20260905031215 | 23 | 34 | 0.0 | 0.0 | 0.00 | 0.00 | 0.00 | 89 | 1014.6 |
| 20260905031015 | 23 | 34 | 0.0 | 0.0 | 0.00 | 0.00 | 0.00 | 89 | 1014.6 |
| 20260905030826 | 23 | 34 | 0.0 | 0.0 | 0.00 | 0.00 | 0.00 | 89 | 1014.6 |
| 20260905030822 | 23 | 34 | 0.0 | 0.0 | 0.00 | 0.00 | 0.00 | 89 | 1014.6 |
| 20260905030808 | 23 | 34 | 0.0 | 0.0 | 0.00 | 0.00 | 0.00 | 89 | 1014.5 |
| 20260905030415 | 23 | 34 | 0.0 | 0.0 | 0.00 | 0.00 | 0.00 | 89 | 1014.5 |
| 20260905030303 | 23 | 37 | 0.0 | 0.0 | 0.00 | 0.00 | 0.00 | 89 | 1014.5 |
| 20260905030216 | 23 | 37 | 0.0 | 0.0 | 0.00 | 0.00 | 0.00 | 89 | 1014.5 |
| 20260905030012 | 23 | 30 | 0.0 | 0.0 | 0.00 | 0.00 | 0.00 | 89 | 1014.5 |
| 20260905025815 | 23 | 30 | 0.0 | 0.0 | 0.00 | 0.00 | 0.00 | 89 | 1014.4 |
| 20260905025801 | 23 | 30 | 0.0 | 0.0 | 0.00 | 0.00 | 0.00 | 89 | 1014.4 |
| 20260905025614 | 23 | 30 | 0.0 | 0.0 | 0.00 | 0.00 | 0.00 | 89 | 1014.4 |
| 20260905025417 | 23 | 31 | 0.0 | 0.0 | 0.00 | 0.00 | 0.00 | 89 | 1014.4 |
| 20260905025412 | 23 | 30 | 0.0 | 0.0 | 0.00 | 0.00 | 0.00 | 89 | 1014.3 |
| 20260905025306 | 23 | 31 | 0.0 | 0.0 | 0.00 | 0.00 | 0.00 | 89 | 1014.3 |
| 20260905025013 | 23 | 31 | 0.0 | 0.0 | 0.00 | 0.00 | 0.00 | 89 | 1014.3 |
| 20260905024815 | 23 | 31 | 0.0 | 0.0 | 0.00 | 0.00 | 0.00 | 89 | 1014.3 |
| 20260905024759 | 23 | 32 | 0.0 | 0.0 | 0.00 | 0.00 | 0.00 | 89 | 1014.3 |
| 20260905024609 | 23 | 30 | 0.0 | 0.0 | 0.00 | 0.00 | 0.00 | 89 | 1014.2 |
| 20260905024411 | 23 | 31 | 0.0 | 0.0 | 0.00 | 0.00 | 0.00 | 89 | 1014.2 |
| 20260905024259 | 23 | 31 | 0.0 | 0.0 | 0.00 | 0.00 | 0.00 | 89 | 1014.2 |
| 20260905024206 | 23 | 31 | 0.0 | 0.0 | 0.00 | 0.00 | 0.00 | 89 | 1014.2 |
| 20260905024059 | 23 | 31 | 0.0 | 0.0 | 0.00 | 0.00 | 0.00 | 88 | 1014.1 |
| 20260905024049 | 23 | 31 | 0.0 | 0.0 | 0.00 | 0.00 | 0.00 | 88 | 1014.2 |
| 20260905023603 | -17 | 0.0 | 0.0 | 0.00 | 0.00 | 0.00 | |||
| 20260905023311 | -17 | 0.0 | 0.0 | 0.00 | 0.00 | 0.00 | |||
| 20260905023107 | -17 | 0.0 | 0.0 | 0.00 | 0.00 | 0.00 | |||
| 20260905022906 | -17 | 0.0 | 0.0 | 0.00 | 0.00 | 0.00 | |||
| 20260905022823 | -17 | 0.0 | 0.0 | 0.00 | 0.00 | 0.00 | |||
| 20260905022535 | -17 | 0.0 | 0.0 | 0.00 | 0.00 | 0.00 | 1013.8 | ||
| 20260905022237 | -17 | 0.0 | 0.0 | 0.00 | 0.00 | 0.00 | 1013.8 | ||
| 20260905022107 | -17 | 0.0 | 0.0 | 0.00 | 0.00 | 0.00 | 1013.8 | ||
| 20260905022102 | -17 | 0.0 | 0.0 | 0.00 | 0.00 | 0.00 | 1013.8 | ||
| 20260905021845 | 23 | 35 | 0.0 | 0.0 | 0.00 | 0.00 | 0.00 | 87 | 1013.8 |
| 20260905021820 | 23 | 35 | 0.0 | 0.0 | 0.00 | 0.00 | 0.00 | 87 | 1013.8 |
| 20260905021406 | 23 | 35 | 0.0 | 0.0 | 0.00 | 0.00 | 0.00 | 87 | 1013.8 |
| 20260905021206 | 23 | 35 | 0.0 | 0.0 | 0.00 | 0.00 | 0.00 | 87 | 1013.8 |
| 20260905021114 | 23 | 35 | 0.0 | 0.0 | 0.00 | 0.00 | 0.00 | 87 | 1013.8 |
| 20260905021105 | 23 | 35 | 0.0 | 0.0 | 0.00 | 0.00 | 0.00 | 87 | 1013.8 |
| 20260905020915 | 24 | 35 | 0.0 | 0.0 | 0.00 | 0.00 | 0.00 | 87 | 1013.7 |
| 20260905020900 | 24 | 35 | 0.0 | 0.0 | 0.00 | 0.00 | 0.00 | 88 | 1013.8 |
| 20260905020404 | 24 | 34 | 0.0 | 0.0 | 0.00 | 0.00 | 0.00 | 87 | 1013.7 |
| 20260905020204 | 24 | 35 | 0.0 | 0.0 | 0.00 | 0.00 | 0.00 | 87 | 1013.6 |
| 20260905020117 | 24 | 35 | 0.0 | 0.0 | 0.00 | 0.00 | 0.00 | 87 | 1013.7 |
| 20260905020006 | 24 | 35 | 0.0 | 0.0 | 0.00 | 0.00 | 0.00 | 87 | 1013.7 |
| 20260905015805 | 24 | 35 | 0.0 | 0.0 | 0.00 | 0.00 | 0.00 | 87 | 1013.6 |
| 20260905015714 | -17 | 0.0 | 0.0 | 0.00 | 0.00 | 0.00 | 1013.7 | ||
| 20260905015609 | -17 | 0.0 | 0.0 | 0.00 | 0.00 | 0.00 | 1013.7 | ||
| 20260905015010 | 24 | 35 | 0.0 | 0.0 | 0.00 | 0.00 | 0.00 | 87 | 1013.5 |
| 20260905014804 | 24 | 35 | 0.0 | 0.0 | 0.00 | 0.00 | 0.00 | 86 | 1013.6 |
| 20260905014756 | 24 | 35 | 0.0 | 0.0 | 0.00 | 0.00 | 0.00 | 86 | 1013.5 |
| 20260905014629 | 24 | 35 | 0.0 | 0.0 | 0.00 | 0.00 | 0.00 | 86 | 1013.5 |
| 20260905014404 | 24 | 35 | 0.0 | 0.0 | 0.00 | 0.00 | 0.00 | 86 | 1013.5 |
| 20260905014204 | 24 | 35 | 0.0 | 0.0 | 0.00 | 0.00 | 0.00 | 86 | 1013.4 |
| 20260905014129 | 24 | 35 | 0.0 | 0.0 | 0.00 | 0.00 | 0.00 | 86 | 1013.4 |
| 20260905014006 | 24 | 34 | 0.0 | 0.0 | 0.00 | 0.00 | 0.00 | 86 | 1013.5 |
| 20260905013800 | 25 | 34 | 0.0 | 0.0 | 0.00 | 0.00 | 0.00 | 86 | 1013.5 |
| 20260905013635 | 25 | 34 | 0.0 | 0.0 | 0.00 | 0.00 | 0.00 | 86 | 1013.4 |
| 20260905013559 | 25 | 34 | 0.0 | 0.0 | 0.00 | 0.00 | 0.00 | 86 | 1013.4 |
| 20260905013339 | 25 | 35 | 0.0 | 0.0 | 0.00 | 0.00 | 0.00 | 85 | 1013.4 |
| 20260905013332 | 25 | 35 | 0.0 | 0.0 | 0.00 | 0.00 | 0.00 | 86 | 1013.5 |
| 20260905013131 | 25 | 35 | 0.0 | 0.0 | 0.00 | 0.00 | 0.00 | 85 | 1013.4 |
| 20260905013006 | 25 | 35 | 0.0 | 0.0 | 0.00 | 0.00 | 0.00 | 85 | 1013.5 |
| 20260905012730 | 25 | 34 | 0.0 | 0.0 | 0.00 | 0.00 | 0.00 | 85 | 1013.5 |
| 20260905012630 | 25 | 35 | 0.0 | 0.0 | 0.00 | 0.00 | 0.00 | 85 | 1013.5 |
| 20260905012530 | 25 | 35 | 0.0 | 0.0 | 0.00 | 0.00 | 0.00 | 85 | 1013.5 |
| 20260905012331 | 25 | 35 | 0.0 | 0.0 | 0.00 | 0.00 | 0.00 | 85 | 1013.5 |
| 20260905012121 | 25 | 35 | 0.0 | 0.0 | 0.00 | 0.00 | 0.00 | 85 | 1013.4 |
| 20260905011949 | 25 | 35 | 0.0 | 0.0 | 0.00 | 0.00 | 0.00 | 84 | 1013.4 |
| 20260905011941 | 25 | 34 | 0.0 | 0.0 | 0.00 | 0.00 | 0.00 | 85 | 1013.4 |
| 20260905011629 | 25 | 35 | 0.0 | 0.0 | 0.00 | 0.00 | 0.00 | 84 | 1013.4 |
| 20260905011558 | 25 | 35 | 0.0 | 0.0 | 0.00 | 0.00 | 0.00 | 84 | 1013.4 |
| 20260905011544 | 25 | 35 | 0.0 | 0.0 | 0.00 | 0.00 | 0.00 | 84 | 1013.4 |
| 20260905011419 | 25 | 35 | 0.0 | 0.0 | 0.00 | 0.00 | 0.00 | 84 | 1013.4 |
| 20260905010932 | 25 | 35 | 0.0 | 0.0 | 0.00 | 0.00 | 0.00 | 84 | 1013.4 |
| 20260905010701 | 25 | 35 | 0.0 | 0.0 | 0.00 | 0.00 | 0.00 | 84 | 1013.3 |
| 20260905010620 | 25 | 35 | 0.0 | 0.0 | 0.00 | 0.00 | 0.00 | 84 | 1013.4 |
| 20260905010503 | 25 | 35 | 0.0 | 0.0 | 0.00 | 0.00 | 0.00 | 84 | 1013.4 |
| 20260905010457 | 26 | 34 | 0.0 | 0.0 | 0.00 | 0.00 | 0.00 | 84 | 1013.3 |
| 20260905010453 | 26 | 34 | 0.0 | 0.0 | 0.00 | 0.00 | 0.00 | 84 | 1013.3 |
| 20260905010355 | 25 | 35 | 0.0 | 0.0 | 0.00 | 0.00 | 0.00 | 84 | 1013.3 |
| 20260905005915 | 26 | 35 | 0.0 | 0.0 | 0.00 | 0.00 | 0.00 | 84 | 1013.3 |
| 20260905005758 | 26 | 35 | 0.0 | 0.0 | 0.00 | 0.00 | 0.00 | 83 | 1013.3 |
| 20260905005618 | 26 | 35 | 0.0 | 0.0 | 0.00 | 0.00 | 0.00 | 83 | 1013.3 |
| 20260905005458 | 26 | 37 | 0.0 | 0.0 | 0.00 | 0.00 | 0.00 | 83 | 1013.2 |
| 20260905005453 | 26 | 34 | 0.0 | 0.0 | 0.00 | 0.00 | 0.00 | 82 | 1013.2 |
| 20260905005341 | 26 | 35 | 0.0 | 0.0 | 0.00 | 0.00 | 0.00 | 82 | 1013.1 |
| 20260905005059 | 26 | 35 | 0.0 | 0.0 | 0.00 | 0.00 | 0.00 | 82 | 1013.2 |
| 20260905004935 | 26 | 35 | 0.0 | 0.0 | 0.00 | 0.00 | 0.00 | 82 | 1013.2 |
| 20260905004740 | 26 | 35 | 0.0 | 0.0 | 0.00 | 0.00 | 0.00 | 81 | 1013.1 |
| 20260905004606 | 26 | 35 | 0.0 | 0.0 | 0.00 | 0.00 | 0.00 | 81 | 1013.1 |
| 20260905004440 | 26 | 35 | 0.0 | 0.0 | 0.00 | 0.00 | 0.00 | 81 | 1013.1 |
| 20260905004336 | 26 | 35 | 0.0 | 0.0 | 0.00 | 0.00 | 0.00 | 81 | 1013.1 |
| 20260905004104 | 26 | 34 | 0.0 | 0.0 | 0.00 | 0.00 | 0.00 | 81 | 1013.2 |
| 20260905004036 | 26 | 35 | 0.0 | 0.0 | 0.00 | 0.00 | 0.00 | 81 | 1013.1 |
| 20260905003855 | 26 | 37 | 0.0 | 0.0 | 0.00 | 0.00 | 0.00 | 81 | 1013.2 |
| 20260905003636 | 26 | 35 | 0.0 | 0.0 | 0.00 | 0.00 | 0.00 | 80 | 1013.2 |
| 20260905003602 | 27 | 35 | 0.0 | 0.0 | 0.00 | 0.00 | 0.00 | 80 | 1013.2 |
| 20260905003436 | 27 | 35 | 0.0 | 0.0 | 0.00 | 0.00 | 0.00 | 80 | 1013.1 |
| 20260905003234 | 27 | 34 | 0.0 | 0.0 | 0.00 | 0.00 | 0.00 | 80 | 1013.1 |
| 20260905003104 | 27 | 34 | 0.0 | 0.0 | 0.00 | 0.00 | 0.00 | 80 | 1013.2 |
| 20260905003033 | 27 | 35 | 0.0 | 0.0 | 0.00 | 0.00 | 0.00 | 80 | 1013.2 |
| 20260905002835 | 27 | 35 | 0.0 | 0.0 | 0.00 | 0.00 | 0.00 | 80 | 1013.2 |
| 20260905002726 | 27 | 37 | 0.0 | 0.0 | 0.00 | 0.00 | 0.00 | 80 | 1013.3 |
| 20260905002603 | 27 | 37 | 0.0 | 0.0 | 0.00 | 0.00 | 0.00 | 80 | 1013.3 |
| 20260905002431 | 27 | 37 | 0.0 | 0.0 | 0.00 | 0.00 | 0.00 | 79 | 1013.2 |
| 20260905002230 | 27 | 37 | 0.0 | 0.0 | 0.00 | 0.00 | 0.00 | 79 | 1013.2 |
| 20260905002103 | 27 | 38 | 0.0 | 0.0 | 0.00 | 0.00 | 0.00 | 79 | 1013.2 |
| 20260905002003 | 27 | 37 | 0.0 | 0.0 | 0.00 | 0.00 | 0.00 | 79 | 1013.2 |
| 20260905001919 | 28 | 37 | 0.0 | 0.0 | 0.00 | 0.00 | 0.00 | 78 | 1013.1 |
| 20260905001601 | 28 | 35 | 0.0 | 0.0 | 0.00 | 0.00 | 0.00 | 78 | 1013.1 |
| 20260905001400 | 28 | 37 | 0.0 | 0.0 | 0.00 | 0.00 | 0.00 | 78 | 1013.1 |
| 20260905001325 | 28 | 35 | 0.0 | 0.0 | 0.00 | 0.00 | 0.00 | 77 | 1013.1 |
| 20260905001102 | 28 | 35 | 0.0 | 0.0 | 0.00 | 0.00 | 0.00 | 77 | 1013.1 |
| 20260905001001 | 28 | 37 | 0.0 | 0.0 | 0.00 | 0.00 | 0.00 | 77 | 1013.1 |
| 20260905000853 | 29 | 37 | 0.0 | 0.0 | 0.00 | 0.00 | 0.00 | 75 | 1013.0 |
| 20260905000848 | 29 | 37 | 0.0 | 0.0 | 0.00 | 0.00 | 0.00 | 75 | 1013.0 |
| 20260905000835 | 28 | 38 | 0.0 | 0.0 | 0.00 | 0.00 | 0.00 | 76 | 1013.0 |
| 20260905000744 | 28 | 35 | 0.0 | 0.0 | 0.00 | 0.00 | 0.00 | 76 | 1013.0 |
| 20260905000333 | 29 | 37 | 0.0 | 0.0 | 0.00 | 0.00 | 0.00 | 75 | 1013.0 |
| 20260904235957 | 29 | 37 | 0.0 | 0.0 | 0.00 | 0.00 | 0.00 | 75 | 1013.0 |
| 20260904235933 | 29 | 35 | 0.0 | 0.0 | 0.00 | 0.00 | 0.00 | 74 | 1013.0 |
| 20260904235605 | 30 | 35 | 0.0 | 0.0 | 0.00 | 0.00 | 0.00 | 74 | 1013.1 |
| 20260904235535 | 30 | 37 | 0.0 | 0.0 | 0.00 | 0.00 | 0.00 | 74 | 1013.0 |
| 20260904235333 | 30 | 37 | 0.0 | 0.0 | 0.00 | 0.00 | 0.00 | 76 | 1013.1 |
| 20260904235134 | 30 | 37 | 0.0 | 0.0 | 0.00 | 0.00 | 0.00 | 76 | 1013.0 |
| 20260904235103 | 30 | 37 | 0.0 | 0.0 | 0.00 | 0.00 | 0.00 | 76 | 1013.0 |
| 20260904234932 | 30 | 35 | 0.0 | 0.0 | 0.00 | 0.00 | 0.00 | 75 | 1013.0 |
| 20260904234911 | 30 | 37 | 0.0 | 0.0 | 0.00 | 0.00 | 0.00 | 74 | 1013.1 |
| 20260904234603 | 30 | 37 | 0.0 | 0.0 | 0.00 | 0.00 | 0.00 | 74 | 1013.0 |
| 20260904234530 | 30 | 37 | 0.0 | 0.0 | 0.00 | 0.00 | 0.00 | 74 | 1013.0 |
| 20260904234430 | 30 | 38 | 0.0 | 1.6 | 0.00 | 0.00 | 0.00 | 76 | 1013.0 |
| 20260904234130 | 30 | 37 | 0.0 | 1.6 | 0.00 | 0.00 | 0.00 | 75 | 1013.1 |
| 20260904234110 | 30 | 35 | 0.0 | 1.6 | 0.00 | 0.00 | 0.00 | 75 | 1013.1 |
| 20260904233932 | 30 | 35 | 0.0 | 3.2 | 0.00 | 0.00 | 0.00 | 75 | 1013.1 |
| 20260904233758 | 30 | 35 | 0.0 | 3.2 | 0.00 | 0.00 | 0.00 | 75 | 1013.0 |
| 20260904233516 | 30 | 35 | 0.0 | 3.2 | 0.00 | 0.00 | 0.00 | 74 | 1013.0 |
| 20260904233416 | 30 | 35 | 0.0 | 3.2 | 0.00 | 0.00 | 0.00 | 76 | 1012.9 |
| 20260904233116 | 30 | 35 | 0.0 | 3.2 | 0.00 | 0.00 | 0.00 | 75 | 1012.9 |
| 20260904233046 | 30 | 35 | 0.0 | 3.2 | 0.00 | 0.00 | 0.00 | 75 | 1012.9 |
| 20260904233008 | 30 | 35 | 0.0 | 1.6 | 0.00 | 0.00 | 0.00 | 75 | 1012.9 |
| 20260904232721 | 30 | 32 | 0.0 | 1.6 | 0.00 | 0.00 | 0.00 | 75 | 1013.0 |
| 20260904232506 | 30 | 34 | 0.0 | 1.6 | 0.00 | 0.00 | 0.00 | 75 | 1012.9 |
| 20260904232318 | 30 | 34 | 0.0 | 0.0 | 0.00 | 0.00 | 0.00 | 76 | 1012.9 |
| 20260904232105 | 30 | 34 | 0.0 | 0.0 | 0.00 | 0.00 | 0.00 | 75 | 1012.8 |
| 20260904232033 | 30 | 34 | 0.0 | 0.0 | 0.00 | 0.00 | 0.00 | 75 | 1012.9 |
| 20260904232020 | 30 | 35 | 0.0 | 0.0 | 0.00 | 0.00 | 0.00 | 75 | 1012.9 |
| 20260904231926 | 30 | 34 | 0.0 | 0.0 | 0.00 | 0.00 | 0.00 | 75 | 1012.9 |
| 20260904231918 | 30 | 34 | 0.0 | 0.0 | 0.00 | 0.00 | 0.00 | 76 | 1012.9 |
| 20260904231846 | 30 | 34 | 0.0 | 0.0 | 0.00 | 0.00 | 0.00 | 75 | 1012.9 |
| 20260904231301 | 30 | 35 | 0.0 | 0.0 | 0.00 | 0.00 | 0.00 | 75 | 1012.9 |
| 20260904231100 | 30 | 32 | 0.0 | 0.0 | 0.00 | 0.00 | 0.00 | 74 | 1012.8 |
| 20260904231031 | 30 | 34 | 0.0 | 0.0 | 0.00 | 0.00 | 0.00 | 74 | 1012.8 |
| 20260904230902 | 30 | 38 | 0.0 | 0.0 | 0.00 | 0.00 | 0.00 | 74 | 1012.9 |
| 20260904230836 | 30 | 38 | 0.0 | 0.0 | 0.00 | 0.00 | 0.00 | 75 | 1012.8 |
| 20260904230811 | 30 | 37 | 0.0 | 0.0 | 0.00 | 0.00 | 0.00 | 75 | 1012.9 |
| 20260904230503 | 30 | 37 | 0.0 | 0.0 | 0.00 | 0.00 | 0.00 | 76 | 1012.8 |
| 20260904230301 | 30 | 37 | 0.0 | 0.0 | 0.00 | 0.00 | 0.00 | 77 | 1012.8 |
| 20260904230228 | 29 | 38 | 0.0 | 0.0 | 0.00 | 0.00 | 0.00 | 76 | 1012.7 |
| 20260904230031 | 29 | 38 | 0.0 | 0.0 | 0.00 | 0.00 | 0.00 | 76 | 1012.7 |
| 20260904225927 | 29 | 38 | 0.0 | 0.0 | 0.00 | 0.00 | 0.00 | 75 | 1012.7 |
| 20260904225920 | 29 | 38 | 0.0 | 0.0 | 0.00 | 0.00 | 0.00 | 77 | 1012.7 |
| 20260904225903 | 29 | 38 | 0.0 | 0.0 | 0.00 | 0.00 | 0.00 | 75 | 1012.7 |
| 20260904225431 | 29 | 38 | 0.0 | 0.0 | 0.00 | 0.00 | 0.00 | 77 | 1012.8 |
| 20260904225230 | 29 | 37 | 0.0 | 0.0 | 0.00 | 0.00 | 0.00 | 77 | 1012.7 |
| 20260904225012 | 29 | 37 | 0.0 | 0.0 | 0.00 | 0.00 | 0.00 | 77 | 1012.7 |
| 20260904224803 | 29 | 38 | 0.0 | 0.0 | 0.00 | 0.00 | 0.00 | 77 | 1012.7 |
| 20260904224741 | 29 | 38 | 0.0 | 0.0 | 0.00 | 0.00 | 0.00 | 77 | 1012.7 |
| 20260904224511 | 29 | 37 | 0.0 | 1.6 | 0.00 | 0.00 | 0.00 | 76 | 1012.7 |
| 20260904224406 | 29 | 38 | 0.0 | 1.6 | 0.00 | 0.00 | 0.00 | 76 | 1012.6 |
| 20260904224305 | 30 | 37 | 0.0 | 4.8 | 0.00 | 0.00 | 0.00 | 76 | 1012.7 |
| 20260904224008 | 30 | 37 | 0.0 | 6.4 | 0.00 | 0.00 | 0.00 | 76 | 1012.6 |
| 20260904223806 | 30 | 37 | 0.0 | 6.4 | 0.00 | 0.00 | 0.00 | 76 | 1012.6 |
| 20260904223607 | 30 | 37 | 0.0 | 6.4 | 0.00 | 0.00 | 0.00 | 76 | 1012.6 |
| 20260904223515 | 30 | 38 | 0.0 | 6.4 | 0.00 | 0.00 | 0.00 | 76 | 1012.5 |
| 20260904223404 | 30 | 37 | 0.0 | 6.4 | 0.00 | 0.00 | 0.00 | 76 | 1012.6 |
| 20260904223305 | 30 | 31 | 0.0 | 6.4 | 0.00 | 0.00 | 0.00 | 76 | 1012.7 |
| 20260904223006 | 30 | 17 | 0.0 | 3.2 | 0.00 | 0.00 | 0.00 | 76 | 1012.6 |
| 20260904222816 | 30 | 17 | 0.0 | 3.2 | 0.00 | 0.00 | 0.00 | 76 | 1012.6 |
| 20260904222604 | 30 | 17 | 0.0 | 3.2 | 0.00 | 0.00 | 0.00 | 76 | 1012.6 |
| 20260904222545 | 30 | 14 | 0.0 | 3.2 | 0.00 | 0.00 | 0.00 | 75 | 1012.7 |
| 20260904222513 | 30 | 16 | 0.0 | 3.2 | 0.00 | 0.00 | 0.00 | 76 | 1012.7 |
| 20260904222205 | 30 | 14 | 0.0 | 1.6 | 0.00 | 0.00 | 0.00 | 77 | 1012.6 |
| 20260904222111 | 30 | 14 | 0.0 | 4.8 | 0.00 | 0.00 | 0.00 | 76 | 1012.6 |
| 20260904222006 | 30 | 14 | 0.0 | 4.8 | 0.00 | 0.00 | 0.00 | 76 | 1012.6 |
| 20260904221803 | 30 | 13 | 0.0 | 4.8 | 0.00 | 0.00 | 0.00 | 77 | 1012.6 |
| 20260904221604 | 30 | 13 | 0.0 | 4.8 | 0.00 | 0.00 | 0.00 | 75 | 1012.5 |
| 20260904221543 | 30 | 13 | 0.0 | 4.8 | 0.00 | 0.00 | 0.00 | 75 | 1012.6 |
| 20260904221408 | 30 | 13 | 0.0 | 4.8 | 0.00 | 0.00 | 0.00 | 75 | 1012.5 |
| 20260904221155 | 30 | 14 | 0.0 | 4.8 | 0.00 | 0.00 | 0.00 | 75 | 1012.5 |
| 20260904221104 | 30 | 324 | 0.0 | 0.0 | 0.00 | 0.00 | 0.00 | 76 | 1012.3 |
| 20260904221002 | 30 | 324 | 0.0 | 0.0 | 0.00 | 0.00 | 0.00 | 76 | 1012.3 |
| 20260904220746 | -17 | 0.0 | 0.0 | 0.00 | 0.00 | 0.00 | |||
| 20260904220635 | -17 | 0.0 | 0.0 | 0.00 | 0.00 | 0.00 | |||
| 20260904220550 | -17 | 0.0 | 0.0 | 0.00 | 0.00 | 0.00 | |||
| 20260904220238 | -17 | 0.0 | 0.0 | 0.00 | 0.00 | 0.00 | |||
| 20260904220009 | -17 | 0.0 | 0.0 | 0.00 | 0.00 | 0.00 | |||
| 20260904215812 | -17 | 0.0 | 0.0 | 0.00 | 0.00 | 0.00 | |||
| 20260904215710 | -17 | 0.0 | 0.0 | 0.00 | 0.00 | 0.00 | 1012.2 | ||
| 20260904215620 | -17 | 0.0 | 0.0 | 0.00 | 0.00 | 0.00 | 1012.2 | ||
| 20260904215507 | -17 | 0.0 | 0.0 | 0.00 | 0.00 | 0.00 | 1012.2 | ||
| 20260904215202 | -17 | 0.0 | 0.0 | 0.00 | 0.00 | 0.00 | 1012.2 | ||
| 20260904215136 | 30 | 11 | 0.0 | 3.2 | 0.00 | 0.00 | 0.00 | 74 | 1012.2 |
| 20260904215050 | 30 | 11 | 0.0 | 4.8 | 0.00 | 0.00 | 0.00 | 74 | 1012.2 |
| 20260904214949 | 30 | 11 | 0.0 | 4.8 | 0.00 | 0.00 | 0.00 | 74 | 1012.1 |
| 20260904214928 | 30 | 11 | 0.0 | 4.8 | 0.00 | 0.00 | 0.00 | 74 | 1012.2 |
| 20260904214531 | 30 | 11 | 0.0 | 6.4 | 0.00 | 0.00 | 0.00 | 74 | 1012.2 |
| 20260904214328 | 30 | 11 | 0.0 | 6.4 | 0.00 | 0.00 | 0.00 | 74 | 1012.2 |
| 20260904214124 | 30 | 13 | 0.0 | 6.4 | 0.00 | 0.00 | 0.00 | 74 | 1012.1 |
| 20260904214056 | 31 | 13 | 0.0 | 6.4 | 0.00 | 0.00 | 0.00 | 73 | 1012.2 |
| 20260904213924 | 30 | 13 | 0.0 | 6.4 | 0.00 | 0.00 | 0.00 | 74 | 1012.2 |
| 20260904213918 | 31 | 37 | 0.0 | 4.8 | 0.00 | 0.00 | 0.00 | 74 | 1012.2 |
| 20260904213549 | 31 | 44 | 0.0 | 6.4 | 0.00 | 0.00 | 0.00 | 75 | 1012.3 |
| 20260904213306 | 31 | 41 | 0.0 | 6.4 | 0.00 | 0.00 | 0.00 | 74 | 1012.2 |
| 20260904213135 | 31 | 42 | 0.0 | 6.4 | 0.00 | 0.00 | 0.00 | 73 | 1012.2 |
| 20260904213106 | 31 | 52 | 0.0 | 6.4 | 0.00 | 0.00 | 0.00 | 73 | 1012.2 |
| 20260904213006 | 31 | 48 | 0.0 | 6.4 | 0.00 | 0.00 | 0.00 | 75 | 1012.2 |
| 20260904212957 | 31 | 48 | 0.0 | 6.4 | 0.00 | 0.00 | 0.00 | 75 | 1012.2 |
| 20260904212850 | 31 | 48 | 0.0 | 6.4 | 0.00 | 0.00 | 0.00 | 75 | 1012.2 |
| 20260904212551 | 31 | 45 | 0.0 | 4.8 | 0.00 | 0.00 | 0.00 | 73 | 1012.2 |
| 20260904212343 | 31 | 124 | 0.0 | 4.8 | 0.00 | 0.00 | 0.00 | 76 | 1012.3 |
| 20260904212131 | 31 | 0 | 0.0 | 4.8 | 0.00 | 0.00 | 0.00 | 76 | 1012.2 |
| 20260904212030 | 31 | 0 | 0.0 | 6.4 | 0.00 | 0.00 | 0.00 | 76 | 1012.2 |
| 20260904211902 | 31 | 0 | 0.0 | 6.4 | 0.00 | 0.00 | 0.00 | 76 | 1012.2 |
| 20260904211630 | 31 | 0 | 0.0 | 6.4 | 0.00 | 0.00 | 0.00 | 76 | 1012.2 |
| 20260904211430 | 31 | 13 | 0.0 | 6.4 | 0.00 | 0.00 | 0.00 | 75 | 1012.2 |
| 20260904211235 | 31 | 92 | 0.0 | 6.4 | 0.00 | 0.00 | 0.00 | 74 | 1012.3 |
| 20260904211146 | 31 | 49 | 0.0 | 4.8 | 0.00 | 0.00 | 0.00 | 75 | 1012.2 |
| 20260904211135 | 31 | 96 | 0.0 | 6.4 | 0.00 | 0.00 | 0.00 | 75 | 1012.3 |
| 20260904210832 | 31 | 49 | 0.0 | 4.8 | 0.00 | 0.00 | 0.00 | 75 | 1012.2 |
| 20260904210749 | 31 | 49 | 0.0 | 4.8 | 0.00 | 0.00 | 0.00 | 75 | 1012.3 |
| 20260904210644 | 31 | 49 | 0.0 | 4.8 | 0.00 | 0.00 | 0.00 | 75 | 1012.3 |
| 20260904210430 | 31 | 51 | 0.0 | 4.8 | 0.00 | 0.00 | 0.00 | 74 | 1012.2 |
| 20260904210349 | 31 | 165 | 0.0 | 4.8 | 0.00 | 0.00 | 0.00 | 74 | 1012.3 |
| 20260904210128 | 31 | 165 | 0.0 | 4.8 | 0.00 | 0.00 | 0.00 | 74 | 1012.3 |
| 20260904210030 | 31 | 166 | 0.0 | 4.8 | 0.00 | 0.00 | 0.00 | 75 | 1012.2 |
| 20260904205835 | 31 | 166 | 0.0 | 4.8 | 0.00 | 0.00 | 0.00 | 77 | 1012.4 |
| 20260904205628 | 31 | 166 | 0.0 | 4.8 | 0.00 | 0.00 | 0.00 | 76 | 1012.3 |
| 20260904205447 | 31 | 169 | 0.0 | 4.8 | 0.00 | 0.00 | 0.00 | 76 | 1012.4 |
| 20260904205406 | 31 | 168 | 0.0 | 3.2 | 0.00 | 0.00 | 0.00 | 75 | 1012.4 |
| 20260904205129 | 31 | 168 | 0.0 | 3.2 | 0.00 | 0.00 | 0.00 | 75 | 1012.3 |
| 20260904205028 | 31 | 166 | 0.0 | 3.2 | 0.00 | 0.00 | 0.00 | 75 | 1012.4 |
| 20260904204932 | 31 | 149 | 0.0 | 3.2 | 0.00 | 0.00 | 0.00 | 76 | 1012.4 |
| 20260904204633 | 31 | 134 | 0.0 | 3.2 | 0.00 | 0.00 | 0.00 | 75 | 1012.3 |
| 20260904204432 | 31 | 203 | 0.0 | 3.2 | 0.00 | 0.00 | 0.00 | 75 | 1012.3 |
| 20260904204228 | 31 | 203 | 0.0 | 3.2 | 0.00 | 0.00 | 0.00 | 75 | 1012.3 |
| 20260904204128 | 31 | 203 | 0.0 | 3.2 | 0.00 | 0.00 | 0.00 | 75 | 1012.3 |
| 20260904204013 | 31 | 203 | 0.0 | 8.0 | 0.00 | 0.00 | 0.00 | 75 | 1012.2 |
| 20260904203910 | 31 | 203 | 0.0 | 8.0 | 0.00 | 0.00 | 0.00 | 77 | 1012.2 |
| 20260904203611 | 31 | 203 | 0.0 | 8.0 | 0.00 | 0.00 | 0.00 | 76 | 1012.3 |
| 20260904203502 | 31 | 203 | 0.0 | 8.0 | 0.00 | 0.00 | 0.00 | 78 | 1012.3 |
| 20260904203221 | 30 | 203 | 0.0 | 8.0 | 0.00 | 0.00 | 0.00 | 77 | 1012.4 |
| 20260904203105 | 30 | 199 | 0.0 | 6.4 | 0.00 | 0.00 | 0.00 | 76 | 1012.3 |
| 20260904203005 | 31 | 54 | 0.0 | 4.8 | 0.00 | 0.00 | 0.00 | 78 | 1012.4 |
| 20260904202802 | 31 | 52 | 0.0 | 4.8 | 0.00 | 0.00 | 0.00 | 79 | 1012.5 |
| 20260904202606 | 31 | 58 | 0.0 | 4.8 | 0.00 | 0.00 | 0.00 | 76 | 1012.4 |
| 20260904202458 | 31 | 55 | 0.0 | 4.8 | 0.00 | 0.00 | 0.00 | 77 | 1012.3 |
| 20260904202203 | 31 | 48 | 0.0 | 4.8 | 0.00 | 0.00 | 0.00 | 78 | 1012.4 |
| 20260904202103 | 31 | 48 | 0.0 | 6.4 | 0.00 | 0.00 | 0.00 | 79 | 1012.4 |
| 20260904202002 | 30 | 49 | 0.0 | 6.4 | 0.00 | 0.00 | 0.00 | 78 | 1012.3 |
| 20260904201804 | 30 | 49 | 0.0 | 6.4 | 0.00 | 0.00 | 0.00 | 78 | 1012.3 |
| 20260904201605 | 30 | 69 | 0.0 | 6.4 | 0.00 | 0.00 | 0.00 | 79 | 1012.3 |
| 20260904201502 | 30 | 65 | 0.0 | 6.4 | 0.00 | 0.00 | 0.00 | 77 | 1012.3 |
| 20260904201215 | 30 | 55 | 0.0 | 6.4 | 0.00 | 0.00 | 0.00 | 77 | 1012.3 |
| 20260904201106 | 31 | 37 | 0.0 | 6.4 | 0.00 | 0.00 | 0.00 | 78 | 1012.3 |
| 20260904201102 | 31 | 196 | 0.0 | 6.4 | 0.00 | 0.00 | 0.00 | 79 | 1012.4 |
| 20260904200802 | 30 | 27 | 0.0 | 6.4 | 0.00 | 0.00 | 0.00 | 77 | 1012.3 |
| 20260904200619 | 30 | 27 | 0.0 | 6.4 | 0.00 | 0.00 | 0.00 | 78 | 1012.4 |
| 20260904200418 | 30 | 83 | 0.0 | 6.4 | 0.00 | 0.00 | 0.00 | 79 | 1012.3 |
| 20260904200207 | 30 | 0 | 0.0 | 6.4 | 0.00 | 0.00 | 0.00 | 79 | 1012.2 |
| 20260904200153 | 30 | 0 | 0.0 | 4.8 | 0.00 | 0.00 | 0.00 | 78 | 1012.2 |
| 20260904200115 | 30 | 34 | 0.0 | 6.4 | 0.00 | 0.00 | 0.00 | 78 | 1012.2 |
| 20260904195802 | 30 | 18 | 0.0 | 4.8 | 0.00 | 0.00 | 0.00 | 79 | 1012.3 |
| 20260904195708 | 30 | 0 | 0.0 | 6.4 | 0.00 | 0.00 | 0.00 | 78 | 1012.3 |
| 20260904195604 | 30 | 0 | 0.0 | 6.4 | 0.00 | 0.00 | 0.00 | 78 | 1012.3 |
| 20260904195508 | 30 | 21 | 0.0 | 9.7 | 0.00 | 0.00 | 0.00 | 77 | 1012.3 |
| 20260904195447 | 30 | 0 | 0.0 | 9.7 | 0.00 | 0.00 | 0.00 | 79 | 1012.2 |
| 20260904195419 | 30 | 23 | 0.0 | 9.7 | 0.00 | 0.00 | 0.00 | 78 | 1012.3 |
| 20260904195003 | 30 | 35 | 0.0 | 9.7 | 0.00 | 0.00 | 0.00 | 81 | 1012.3 |
| 20260904194803 | 30 | 34 | 0.0 | 9.7 | 0.00 | 0.00 | 0.00 | 80 | 1012.4 |
| 20260904194707 | 30 | 42 | 0.0 | 9.7 | 0.00 | 0.00 | 0.00 | 78 | 1012.3 |
| 20260904194604 | 30 | 42 | 0.0 | 9.7 | 0.00 | 0.00 | 0.00 | 78 | 1012.3 |
| 20260904194504 | 30 | 34 | 0.0 | 9.7 | 0.00 | 0.00 | 0.00 | 81 | 1012.4 |
| 20260904194442 | 30 | 48 | 0.0 | 9.7 | 0.00 | 0.00 | 0.00 | 79 | 1012.4 |
| 20260904194410 | 30 | 31 | 0.0 | 9.7 | 0.00 | 0.00 | 0.00 | 81 | 1012.3 |
| 20260904194005 | 30 | 34 | 0.0 | 9.7 | 0.00 | 0.00 | 0.00 | 81 | 1012.4 |
| 20260904193803 | 30 | 144 | 0.0 | 8.0 | 0.00 | 0.00 | 0.00 | 79 | 1012.4 |
| 20260904193611 | 30 | 66 | 0.0 | 8.0 | 0.00 | 0.00 | 0.00 | 77 | 1012.4 |
| 20260904193546 | 30 | 24 | 0.0 | 6.4 | 0.00 | 0.00 | 0.00 | 80 | 1012.4 |
| 20260904193534 | 30 | 68 | 0.0 | 8.0 | 0.00 | 0.00 | 0.00 | 80 | 1012.4 |
| 20260904193412 | 30 | 23 | 0.0 | 6.4 | 0.00 | 0.00 | 0.00 | 79 | 1012.4 |
| 20260904193407 | 30 | 3 | 0.0 | 4.8 | 0.00 | 0.00 | 0.00 | 80 | 1012.4 |
| 20260904192952 | 30 | 23 | 0.0 | 6.4 | 0.00 | 0.00 | 0.00 | 79 | 1012.5 |
| 20260904192754 | 30 | 23 | 0.0 | 6.4 | 0.00 | 0.00 | 0.00 | 80 | 1012.4 |
| 20260904192531 | 30 | 16 | 0.0 | 6.4 | 0.00 | 0.00 | 0.00 | 80 | 1012.4 |
| 20260904192351 | 30 | 16 | 0.0 | 6.4 | 0.00 | 0.00 | 0.00 | 80 | 1012.3 |
| 20260904192151 | 30 | 20 | 0.0 | 8.0 | 0.00 | 0.00 | 0.00 | 80 | 1012.3 |
| 20260904192143 | 30 | 75 | 0.0 | 8.0 | 0.00 | 0.00 | 0.00 | 81 | 1012.3 |
| 20260904192031 | 30 | 21 | 0.0 | 8.0 | 0.00 | 0.00 | 0.00 | 81 | 1012.4 |
| 20260904191850 | 30 | 79 | 0.0 | 8.0 | 0.00 | 0.00 | 0.00 | 80 | 1012.3 |
| 20260904191532 | 30 | 337 | 0.0 | 8.0 | 0.00 | 0.00 | 0.00 | 80 | 1012.4 |
| 20260904191339 | 30 | 337 | 0.0 | 8.0 | 0.00 | 0.00 | 0.00 | 80 | 1012.4 |
| 20260904191140 | 30 | 24 | 0.0 | 6.4 | 0.00 | 0.00 | 0.00 | 80 | 1012.4 |
| 20260904191029 | 30 | 154 | 0.0 | 6.4 | 0.00 | 0.00 | 0.00 | 80 | 1012.5 |
| 20260904190937 | 30 | 45 | 0.0 | 6.4 | 0.00 | 0.00 | 0.00 | 81 | 1012.3 |
| 20260904190741 | 30 | 45 | 0.0 | 8.0 | 0.00 | 0.00 | 0.00 | 78 | 1012.4 |
| 20260904190540 | 30 | 0 | 0.0 | 8.0 | 0.00 | 0.00 | 0.00 | 80 | 1012.4 |
| 20260904190338 | 30 | 353 | 0.0 | 8.0 | 0.00 | 0.00 | 0.00 | 81 | 1012.4 |
| 20260904190136 | 30 | 31 | 0.0 | 8.0 | 0.00 | 0.00 | 0.00 | 80 | 1012.3 |
| 20260904190111 | 30 | 18 | 0.0 | 8.0 | 0.00 | 0.00 | 0.00 | 77 | 1012.4 |
| 20260904190029 | 30 | 31 | 0.0 | 8.0 | 0.00 | 0.00 | 0.00 | 78 | 1012.4 |
| 20260904185740 | 31 | 188 | 0.0 | 6.4 | 0.00 | 0.00 | 0.00 | 80 | 1012.4 |
| 20260904185658 | 31 | 8 | 0.0 | 6.4 | 0.00 | 0.00 | 0.00 | 82 | 1012.4 |
| 20260904185529 | 31 | 8 | 0.0 | 6.4 | 0.00 | 0.00 | 0.00 | 80 | 1012.4 |
| 20260904185336 | 31 | 10 | 0.0 | 6.4 | 0.00 | 0.00 | 0.00 | 79 | 1012.3 |
| 20260904185206 | 30 | 21 | 0.0 | 6.4 | 0.00 | 0.00 | 0.00 | 82 | 1012.4 |
| 20260904185043 | 30 | 21 | 0.0 | 6.4 | 0.00 | 0.00 | 0.00 | 82 | 1012.4 |
| 20260904184931 | 30 | 21 | 0.0 | 6.4 | 0.00 | 0.00 | 0.00 | 82 | 1012.2 |
| 20260904184730 | -17 | 23 | 0.0 | 0.0 | 0.00 | 0.00 | 0.00 | 1012.3 | |
| 20260904184704 | -17 | 0.0 | 0.0 | 0.00 | 0.00 | 0.00 | 1012.3 | ||
| 20260904184602 | -17 | 0.0 | 0.0 | 0.00 | 0.00 | 0.00 | 1012.3 | ||
| 20260904184307 | -17 | 0.0 | 0.0 | 0.00 | 0.00 | 0.00 | |||
| 20260904184207 | -17 | 0.0 | 0.0 | 0.00 | 0.00 | 0.00 | |||
| 20260904183909 | -17 | 0.0 | 0.0 | 0.00 | 0.00 | 0.00 | |||
| 20260904183726 | -17 | 0.0 | 0.0 | 0.00 | 0.00 | 0.00 | |||
| 20260904183722 | -17 | 0.0 | 0.0 | 0.00 | 0.00 | 0.00 | |||
| 20260904183650 | -17 | 0.0 | 0.0 | 0.00 | 0.00 | 0.00 | |||
| 20260904183259 | -17 | 0.0 | 0.0 | 0.00 | 0.00 | 0.00 | 1012.4 | ||
| 20260904183234 | -17 | 0.0 | 0.0 | 0.00 | 0.00 | 0.00 | 1012.4 | ||
| 20260904183206 | -17 | 0.0 | 0.0 | 0.00 | 0.00 | 0.00 | 1012.4 | ||
| 20260904182836 | -17 | 0.0 | 0.0 | 0.00 | 0.00 | 0.00 | 1012.4 | ||
| 20260904182711 | 30 | 27 | 0.0 | 3.2 | 0.00 | 0.00 | 0.00 | 81 | 1012.4 |
| 20260904182519 | 30 | 27 | 0.0 | 8.0 | 0.00 | 0.00 | 0.00 | 81 | 1012.4 |
| 20260904182411 | 30 | 27 | 0.0 | 8.0 | 0.00 | 0.00 | 0.00 | 81 | 1012.4 |
| 20260904182159 | 30 | 27 | 0.0 | 8.0 | 0.00 | 0.00 | 0.00 | 81 | 1012.3 |
| 20260904182142 | 30 | 27 | 0.0 | 8.0 | 0.00 | 0.00 | 0.00 | 81 | 1012.4 |
| 20260904182112 | 30 | 27 | 0.0 | 8.0 | 0.00 | 0.00 | 0.00 | 81 | 1012.3 |
| 20260904181742 | 30 | 27 | 0.0 | 8.0 | 0.00 | 0.00 | 0.00 | 81 | 1012.3 |
| 20260904181542 | 30 | 27 | 0.0 | 8.0 | 0.00 | 0.00 | 0.00 | 81 | 1012.4 |
| 20260904181344 | 30 | 28 | 0.0 | 4.8 | 0.00 | 0.00 | 0.00 | 81 | 1012.4 |
| 20260904181204 | 30 | 41 | 0.0 | 4.8 | 0.00 | 0.00 | 0.00 | 80 | 1012.3 |
| 20260904181143 | 30 | 18 | 0.0 | 4.8 | 0.00 | 0.00 | 0.00 | 81 | 1012.2 |
| 20260904181120 | 30 | 41 | 0.0 | 4.8 | 0.00 | 0.03 | 0.00 | 80 | 1012.2 |
| 20260904180742 | 30 | 42 | 0.0 | 4.8 | 0.00 | 0.03 | 0.00 | 80 | 1012.2 |
| 20260904180642 | -17 | 25 | 0.0 | 0.0 | 0.00 | 0.00 | 0.00 | 1012.3 | |
| 20260904180337 | -17 | 0.0 | 0.0 | 0.00 | 0.00 | 0.00 | 1012.2 | ||
| 20260904180043 | -17 | 0.0 | 0.0 | 0.00 | 0.00 | 0.00 | |||
| 20260904180024 | -17 | 0.0 | 0.0 | 0.00 | 0.00 | 0.00 | |||
| 20260904175607 | -17 | 0.0 | 0.0 | 0.00 | 0.00 | 0.00 | |||
| 20260904175510 | -17 | 0.0 | 0.0 | 0.00 | 0.00 | 0.00 | |||
| 20260904175306 | -17 | 0.0 | 0.0 | 0.00 | 0.00 | 0.00 | |||
| 20260904175206 | -17 | 0.0 | 0.0 | 0.00 | 0.00 | 0.00 | |||
| 20260904175108 | -17 | 0.0 | 0.0 | 0.00 | 0.00 | 0.00 | |||
| 20260904174736 | -17 | 0.0 | 0.0 | 0.00 | 0.00 | 0.00 | 1012.1 | ||
| 20260904174535 | -17 | 0.0 | 0.0 | 0.00 | 0.00 | 0.00 | 1012.1 | ||
| 20260904174437 | -17 | 0.0 | 0.0 | 0.00 | 0.00 | 0.00 | 1012.1 | ||
| 20260904174233 | -17 | 0.0 | 0.0 | 0.00 | 0.00 | 0.00 | 1012.1 | ||
| 20260904174134 | -17 | 0.0 | 0.0 | 0.00 | 0.00 | 0.00 | 1012.1 | ||
| 20260904173933 | -17 | 0.0 | 0.0 | 0.00 | 0.00 | 0.00 | 1012.1 | ||
| 20260904173735 | -17 | 0.0 | 0.0 | 0.00 | 0.00 | 0.00 | 1012.1 | ||
| 20260904173439 | -17 | 0.0 | 0.0 | 0.00 | 0.79 | 0.00 | |||
| 20260904173334 | -17 | 0.0 | 0.0 | 0.00 | 0.79 | 0.00 | |||
| 20260904173039 | -17 | 0.0 | 0.0 | 0.00 | 0.79 | 0.00 | |||
| 20260904172942 | -17 | 0.0 | 0.0 | 0.00 | 0.79 | 0.00 | |||
| 20260904172934 | -17 | 0.0 | 0.0 | 0.00 | 0.79 | 0.00 | |||
| 20260904172607 | -17 | 0.0 | 0.0 | 0.00 | 0.79 | 0.00 | |||
| 20260904172407 | -17 | 0.0 | 0.0 | 0.00 | 0.79 | 0.00 | |||
| 20260904172209 | -17 | 0.0 | 0.0 | 0.00 | 0.79 | 0.00 | 1011.8 | ||
| 20260904171940 | -17 | 0.0 | 0.0 | 0.00 | 0.79 | 0.00 | 1011.8 | ||
| 20260904171917 | 31 | 18 | 0.0 | 3.2 | 0.00 | 0.79 | 0.00 | 77 | 1011.8 |
| 20260904171834 | 31 | 18 | 0.0 | 3.2 | 0.00 | 0.79 | 0.00 | 77 | 1011.8 |
| 20260904171535 | 31 | 18 | 0.0 | 6.4 | 0.00 | 0.79 | 0.00 | 77 | 1011.8 |
| 20260904171435 | 31 | 18 | 0.0 | 6.4 | 0.00 | 0.79 | 0.00 | 77 | 1011.8 |
| 20260904171416 | 31 | 18 | 0.0 | 6.4 | 0.00 | 0.79 | 0.00 | 77 | 1011.8 |
| 20260904171147 | 31 | 7 | 0.0 | 6.4 | 0.00 | 0.79 | 0.00 | 77 | 1011.7 |
| 20260904171141 | 31 | 18 | 0.0 | 6.4 | 0.00 | 0.79 | 0.00 | 77 | 1011.8 |
| 20260904171124 | 31 | 18 | 0.0 | 6.4 | 0.00 | 0.79 | 0.00 | 77 | 1011.7 |
| 20260904170712 | 31 | 41 | 0.0 | 6.4 | 0.00 | 0.79 | 0.00 | 77 | 1011.6 |
| 20260904170514 | 31 | 38 | 0.0 | 4.8 | 0.00 | 0.79 | 0.00 | 77 | 1011.7 |
| 20260904170408 | 31 | 39 | 0.0 | 4.8 | 0.00 | 0.79 | 0.00 | 76 | 1011.8 |
| 20260904170312 | 31 | 39 | 0.0 | 6.4 | 0.00 | 0.79 | 0.00 | 76 | 1011.8 |
| 20260904170107 | 31 | 25 | 0.0 | 8.0 | 0.00 | 0.79 | 0.00 | 76 | 1011.8 |
| 20260904170044 | 31 | 327 | 0.0 | 8.0 | 0.00 | 0.79 | 0.00 | 77 | 1011.8 |
| 20260904165842 | 31 | 327 | 0.0 | 8.0 | 0.00 | 0.79 | 0.00 | 77 | 1011.8 |
| 20260904165639 | 31 | 324 | 0.0 | 8.0 | 0.00 | 0.79 | 0.00 | 76 | 1011.7 |
| 20260904165435 | 31 | 39 | 0.0 | 8.0 | 0.00 | 0.81 | 0.00 | 75 | 1011.7 |
| 20260904165339 | 31 | 55 | 0.0 | 8.0 | 0.00 | 0.81 | 0.00 | 75 | 1011.7 |
| 20260904165209 | 31 | 42 | 0.0 | 4.8 | 0.00 | 0.81 | 0.00 | 80 | 1011.7 |
| 20260904165010 | 31 | 179 | 0.0 | 4.8 | 0.00 | 0.84 | 0.00 | 80 | 1011.7 |
| 20260904164808 | 31 | 182 | 0.0 | 4.8 | 0.00 | 0.84 | 0.00 | 78 | 1011.6 |
| 20260904164620 | 31 | 179 | 0.0 | 4.8 | 0.00 | 0.84 | 0.00 | 79 | 1011.8 |
| 20260904164608 | 31 | 179 | 0.0 | 4.8 | 0.00 | 0.84 | 0.00 | 79 | 1011.8 |
| 20260904164315 | 31 | 178 | 0.0 | 4.8 | 0.00 | 0.84 | 0.00 | 78 | 1011.7 |
| 20260904164212 | 31 | 180 | 0.0 | 4.8 | 0.00 | 0.84 | 0.00 | 79 | 1011.7 |
| 20260904164007 | 31 | 147 | 0.0 | 3.2 | 0.00 | 0.86 | 0.00 | 79 | 1011.7 |
| 20260904163813 | 31 | 152 | 0.0 | 4.8 | 0.00 | 0.97 | 0.00 | 79 | 1011.7 |
| 20260904163807 | 31 | 151 | 0.0 | 4.8 | 0.00 | 0.97 | 0.00 | 79 | 1011.8 |
| 20260904163609 | 31 | 148 | 0.0 | 4.8 | 0.00 | 0.99 | 0.00 | 79 | 1011.7 |
| 20260904163402 | 31 | 148 | 0.0 | 4.8 | 0.00 | 1.02 | 0.00 | 79 | 1011.7 |
| 20260904163317 | 31 | 113 | 0.0 | 4.8 | 0.00 | 1.04 | 0.00 | 79 | 1011.7 |
| 20260904163208 | 31 | 164 | 0.0 | 4.8 | 0.00 | 1.12 | 0.00 | 80 | 1011.6 |
| 20260904163203 | 31 | 113 | 0.0 | 4.8 | 0.00 | 1.07 | 0.00 | 81 | 1011.7 |
| 20260904162805 | 31 | 147 | 0.0 | 3.2 | 0.00 | 1.14 | 0.00 | 81 | 1011.6 |
| 20260904162603 | 30 | 145 | 0.0 | 3.2 | 0.00 | 1.17 | 0.00 | 81 | 1011.6 |
| 20260904162406 | 30 | 145 | 0.0 | 3.2 | 0.00 | 1.19 | 0.00 | 81 | 1011.5 |
| 20260904162311 | 30 | 355 | 0.0 | 3.2 | 0.00 | 1.19 | 0.00 | 80 | 1011.5 |
| 20260904162207 | -17 | 354 | 0.0 | 0.0 | 0.00 | 1.22 | 0.00 | 1011.6 | |
| 20260904162006 | -17 | 42 | 0.0 | 0.0 | 0.00 | 1.22 | 0.00 | 1011.5 | |
| 20260904161909 | -17 | 0.0 | 0.0 | 0.00 | 0.00 | 0.00 | 1011.5 | ||
| 20260904161808 | -17 | 0.0 | 0.0 | 0.00 | 0.00 | 0.00 | 1011.5 | ||
| 20260904161528 | -17 | 0.0 | 0.0 | 0.00 | 0.00 | 0.00 | |||
| 20260904161231 | -17 | 0.0 | 0.0 | 0.00 | 0.00 | 0.00 | |||
| 20260904161031 | -17 | 0.0 | 0.0 | 0.00 | 0.00 | 0.00 | |||
| 20260904160832 | -17 | 0.0 | 0.0 | 0.00 | 0.00 | 0.00 | |||
| 20260904160703 | -17 | 0.0 | 0.0 | 0.00 | 0.00 | 0.00 | |||
| 20260904160634 | -17 | 0.0 | 0.0 | 0.00 | 0.00 | 0.00 | |||
| 20260904160434 | -17 | 0.0 | 0.0 | 0.00 | 0.00 | 0.00 | |||
| 20260904160342 | -17 | 0.0 | 0.0 | 0.00 | 0.00 | 0.00 | 1011.5 | ||
| 20260904160202 | -17 | 0.0 | 0.0 | 0.00 | 0.00 | 0.00 | 1011.5 | ||
| 20260904160133 | -17 | 0.0 | 0.0 | 0.00 | 0.00 | 0.00 | 1011.5 | ||
| 20260904155807 | -17 | 0.0 | 0.0 | 0.00 | 0.00 | 0.00 | 1011.5 | ||
| 20260904155709 | -17 | 0.0 | 0.0 | 0.00 | 0.00 | 0.00 | 1011.5 | ||
| 20260904155606 | -17 | 0.0 | 0.0 | 0.00 | 0.00 | 0.00 | 1011.5 | ||
| 20260904155402 | -17 | 0.0 | 0.0 | 0.00 | 0.00 | 0.00 | 1011.4 | ||
| 20260904155205 | -17 | 0.0 | 0.0 | 0.00 | 0.00 | 0.00 | 1011.4 | ||
| 20260904154836 | -17 | 0.0 | 0.0 | 0.00 | 1.22 | 0.00 | |||
| 20260904154734 | -17 | 0.0 | 0.0 | 0.00 | 1.22 | 0.00 | |||
| 20260904154534 | -17 | 0.0 | 0.0 | 0.00 | 1.22 | 0.00 | |||
| 20260904154436 | -17 | 0.0 | 0.0 | 0.00 | 1.22 | 0.00 | |||
| 20260904154255 | -17 | 0.0 | 0.0 | 0.00 | 1.22 | 0.00 | |||
| 20260904154235 | -17 | 0.0 | 0.0 | 0.00 | 1.22 | 0.00 | |||
| 20260904154209 | -17 | 0.0 | 0.0 | 0.00 | 1.22 | 0.00 | |||
| 20260904153807 | -17 | 0.0 | 0.0 | 0.00 | 1.22 | 0.00 | 1011.2 | ||
| 20260904153607 | -17 | 0.0 | 0.0 | 0.00 | 1.22 | 0.00 | 1011.2 | ||
| 20260904153407 | -17 | 0.0 | 0.0 | 0.00 | 1.22 | 0.00 | 1011.2 | ||
| 20260904153236 | 29 | 216 | 0.0 | 3.2 | 0.00 | 1.22 | 0.00 | 85 | 1011.2 |
| 20260904153206 | 29 | 216 | 0.0 | 3.2 | 0.00 | 1.22 | 0.00 | 85 | 1011.2 |
| 20260904153158 | 29 | 216 | 0.0 | 0.0 | 0.00 | 1.22 | 0.00 | 85 | 1011.2 |
| 20260904152718 | 29 | 216 | 0.0 | 3.2 | 0.00 | 1.22 | 0.00 | 85 | 1011.1 |
| 20260904152616 | 29 | 216 | 0.0 | 3.2 | 0.00 | 1.22 | 0.00 | 85 | 1011.1 |
| 20260904152433 | 29 | 216 | 0.0 | 3.2 | 0.00 | 1.22 | 0.00 | 85 | 1011.2 |
| 20260904152314 | 29 | 216 | 0.0 | 3.2 | 0.00 | 1.22 | 0.00 | 85 | 1011.1 |
| 20260904152222 | 29 | 216 | 0.0 | 3.2 | 0.00 | 1.22 | 0.00 | 84 | 1011.0 |
| 20260904152204 | 29 | 214 | 0.0 | 3.2 | 0.00 | 1.22 | 0.00 | 84 | 1011.0 |
| 20260904152129 | 29 | 216 | 0.0 | 3.2 | 0.00 | 1.22 | 0.00 | 84 | 1011.0 |
| 20260904151715 | 29 | 214 | 0.0 | 3.2 | 0.00 | 1.22 | 0.00 | 86 | 1010.9 |
| 20260904151620 | 28 | 214 | 0.0 | 3.2 | 0.00 | 1.22 | 0.00 | 85 | 1010.9 |
| 20260904151424 | 28 | 214 | 0.0 | 3.2 | 0.00 | 1.22 | 0.00 | 85 | 1010.9 |
| 20260904151322 | 28 | 214 | 0.0 | 3.2 | 0.00 | 1.22 | 0.00 | 86 | 1010.9 |
| 20260904151317 | 28 | 214 | 0.0 | 3.2 | 0.00 | 1.22 | 0.00 | 86 | 1010.9 |
| 20260904151225 | 28 | 214 | 0.0 | 3.2 | 0.00 | 1.22 | 0.00 | 86 | 1010.9 |
| 20260904151144 | 28 | 214 | 0.0 | 3.2 | 0.00 | 1.22 | 0.00 | 86 | 1010.9 |
| 20260904150719 | 28 | 214 | 0.0 | 3.2 | 0.00 | 1.22 | 0.00 | 86 | 1010.9 |
| 20260904150516 | 28 | 217 | 0.0 | 4.8 | 0.00 | 1.22 | 0.00 | 86 | 1010.8 |
| 20260904150433 | 28 | 214 | 0.0 | 4.8 | 0.00 | 1.22 | 0.00 | 86 | 1010.9 |
| 20260904150319 | 28 | 214 | 0.0 | 4.8 | 0.00 | 1.22 | 0.00 | 86 | 1010.9 |
| 20260904150315 | 28 | 214 | 0.0 | 4.8 | 0.00 | 1.22 | 0.00 | 86 | 1010.9 |
| 20260904145931 | 28 | 214 | 0.0 | 4.8 | 0.00 | 1.22 | 0.00 | 86 | 1010.9 |
| 20260904145714 | 28 | 216 | 0.0 | 4.8 | 0.00 | 1.22 | 0.00 | 86 | 1011.0 |
| 20260904145520 | 28 | 214 | 0.0 | 4.8 | 0.00 | 1.22 | 0.00 | 86 | 1011.0 |
| 20260904145416 | 28 | 214 | 0.0 | 4.8 | 0.00 | 1.22 | 0.00 | 86 | 1010.9 |
| 20260904145318 | 28 | 214 | 0.0 | 4.8 | 0.00 | 1.22 | 0.00 | 86 | 1010.9 |
| 20260904145118 | 28 | 214 | 0.0 | 4.8 | 0.00 | 1.22 | 0.00 | 86 | 1011.0 |
| 20260904144935 | 27 | 214 | 0.0 | 3.2 | 0.00 | 1.22 | 0.00 | 88 | 1010.9 |
| 20260904144918 | 28 | 214 | 0.0 | 4.8 | 0.00 | 1.22 | 0.00 | 86 | 1011.0 |
| 20260904144515 | 27 | 213 | 0.0 | 1.6 | 0.00 | 1.22 | 0.00 | 88 | 1010.9 |
| 20260904144416 | 27 | 213 | 0.0 | 0.0 | 0.00 | 1.22 | 0.00 | 88 | 1010.9 |
| 20260904144319 | 27 | 213 | 0.0 | 0.0 | 0.00 | 1.22 | 0.00 | 88 | 1011.0 |
| 20260904144117 | 27 | 213 | 0.0 | 1.6 | 0.00 | 1.22 | 0.00 | 89 | 1011.0 |
| 20260904143918 | 27 | 216 | 0.0 | 1.6 | 0.00 | 1.22 | 0.00 | 89 | 1010.9 |
| 20260904143716 | 27 | 216 | 0.0 | 1.6 | 0.00 | 1.22 | 0.00 | 89 | 1011.0 |
| 20260904143555 | 27 | 216 | 0.0 | 4.8 | 0.00 | 1.22 | 0.00 | 89 | 1011.0 |
| 20260904143515 | 27 | 214 | 0.0 | 1.6 | 0.00 | 1.22 | 0.00 | 89 | 1010.9 |
| 20260904143438 | 27 | 214 | 0.0 | 1.6 | 0.00 | 1.22 | 0.00 | 89 | 1011.0 |
| 20260904143116 | 26 | 216 | 0.0 | 6.4 | 0.00 | 1.22 | 0.00 | 90 | 1010.9 |
| 20260904142931 | 26 | 214 | 0.0 | 6.4 | 0.00 | 1.22 | 0.00 | 90 | 1011.0 |
| 20260904142721 | 26 | 216 | 0.0 | 6.4 | 0.00 | 1.22 | 0.00 | 90 | 1010.9 |
| 20260904142517 | 26 | 216 | 0.0 | 6.4 | 0.00 | 1.22 | 0.00 | 90 | 1011.0 |
| 20260904142425 | 26 | 216 | 0.0 | 6.4 | 0.00 | 1.22 | 0.00 | 90 | 1011.0 |
| 20260904142318 | 26 | 216 | 0.0 | 6.4 | 0.00 | 1.22 | 0.00 | 90 | 1011.0 |
| 20260904142200 | 26 | 214 | 0.0 | 4.8 | 0.00 | 1.22 | 0.00 | 90 | 1010.8 |
| 20260904142152 | 26 | 214 | 0.0 | 4.8 | 0.00 | 1.22 | 0.00 | 90 | 1011.0 |
| 20260904142128 | 26 | 214 | 0.0 | 4.8 | 0.00 | 1.22 | 0.00 | 90 | 1010.9 |
| 20260904141718 | 26 | 216 | 0.0 | 1.6 | 0.00 | 1.22 | 0.00 | 92 | 1011.0 |
| 20260904141517 | 26 | 213 | 0.0 | 1.6 | 0.00 | 1.22 | 0.00 | 92 | 1011.0 |
| 20260904141412 | 26 | 213 | 0.0 | 1.6 | 0.00 | 1.22 | 0.00 | 92 | 1010.8 |
| 20260904141321 | -17 | 0.0 | 0.0 | 0.00 | 0.00 | 0.00 | 1010.9 | ||
| 20260904141308 | 26 | 214 | 0.0 | 1.6 | 0.00 | 1.22 | 0.00 | 92 | 1010.9 |
| 20260904141145 | -17 | 0.0 | 0.0 | 0.00 | 0.00 | 0.00 | 1010.9 | ||
| 20260904141137 | -17 | 214 | 0.0 | 0.0 | 0.00 | 1.22 | 0.00 | 1010.8 | |
| 20260904140604 | -17 | 0.0 | 0.0 | 0.00 | 0.00 | 0.00 | |||
| 20260904140402 | -17 | 0.0 | 0.0 | 0.00 | 0.00 | 0.00 | |||
| 20260904140306 | -17 | 0.0 | 0.0 | 0.00 | 0.00 | 0.00 | |||
| 20260904140207 | -17 | 0.0 | 0.0 | 0.00 | 0.00 | 0.00 | |||
| 20260904140041 | -17 | 0.0 | 0.0 | 0.00 | 0.00 | 0.00 | |||
| 20260904140019 | -17 | 0.0 | 0.0 | 0.00 | 0.00 | 0.00 | |||
| 20260904135639 | -17 | 0.0 | 0.0 | 0.00 | 0.00 | 0.00 | |||
| 20260904135435 | -17 | 0.0 | 0.0 | 0.00 | 0.00 | 0.00 | 1011.0 | ||
| 20260904135305 | -17 | 0.0 | 0.0 | 0.00 | 0.00 | 0.00 | 1011.0 | ||
| 20260904135135 | -17 | 0.0 | 0.0 | 0.00 | 0.00 | 0.00 | 1011.0 | ||
| 20260904134934 | -17 | 0.0 | 0.0 | 0.00 | 0.00 | 0.00 | 1011.0 | ||
| 20260904134802 | -17 | 0.0 | 0.0 | 0.00 | 0.00 | 0.00 | 1011.0 | ||
| 20260904134707 | -17 | 0.0 | 0.0 | 0.00 | 0.00 | 0.00 | 1011.0 | ||
| 20260904134505 | -17 | 0.0 | 0.0 | 0.00 | 0.00 | 0.00 | 1010.9 | ||
| 20260904134308 | -17 | 0.0 | 0.0 | 0.00 | 0.00 | 0.00 | 1010.8 | ||
| 20260904134134 | -17 | 0.0 | 0.0 | 0.00 | 1.22 | 0.00 | |||
| 20260904133836 | -17 | 0.0 | 0.0 | 0.00 | 1.22 | 0.00 | |||
| 20260904133735 | -17 | 0.0 | 0.0 | 0.00 | 1.22 | 0.00 | |||
| 20260904133636 | -17 | 0.0 | 0.0 | 0.00 | 1.22 | 0.00 | |||
| 20260904133434 | -17 | 0.0 | 0.0 | 0.00 | 1.22 | 0.00 | |||
| 20260904133211 | -17 | 0.0 | 0.0 | 0.00 | 1.22 | 0.00 | |||
| 20260904133106 | -17 | 0.0 | 0.0 | 0.00 | 1.22 | 0.00 | 1010.7 | ||
| 20260904132905 | -17 | 0.0 | 0.0 | 0.00 | 1.22 | 0.00 | 1010.7 | ||
| 20260904132730 | -17 | 0.0 | 0.0 | 0.00 | 1.22 | 0.00 | 1010.7 | ||
| 20260904132535 | -17 | 0.0 | 0.0 | 0.00 | 1.22 | 0.00 | 1010.7 | ||
| 20260904132336 | 23 | 175 | 0.0 | 0.0 | 0.00 | 1.22 | 0.00 | 98 | 1010.7 |
| 20260904132204 | 23 | 175 | 0.0 | 0.0 | 0.00 | 1.22 | 0.00 | 98 | 1010.7 |
| 20260904132137 | 23 | 175 | 0.0 | 1.6 | 0.00 | 1.22 | 0.00 | 98 | 1010.7 |
| 20260904131923 | 23 | 175 | 0.0 | 1.6 | 0.00 | 1.22 | 0.00 | 98 | 1010.8 |
| 20260904131723 | 23 | 175 | 0.0 | 1.6 | 0.00 | 1.22 | 0.00 | 98 | 1010.8 |
| 20260904131705 | 23 | 175 | 0.0 | 1.6 | 0.00 | 1.22 | 0.00 | 98 | 1010.9 |
| 20260904131622 | 23 | 175 | 0.0 | 1.6 | 0.00 | 1.22 | 0.00 | 98 | 1010.9 |
| 20260904131422 | 23 | 175 | 0.0 | 1.6 | 0.00 | 1.22 | 0.00 | 98 | 1010.8 |
| 20260904131203 | 23 | 178 | 0.0 | 1.6 | 0.00 | 1.22 | 0.00 | 98 | 1010.8 |
| 20260904131123 | 23 | 141 | 0.0 | 0.0 | 0.00 | 1.22 | 0.00 | 98 | 1010.8 |
| 20260904130923 | 23 | 141 | 0.0 | 0.0 | 0.00 | 1.22 | 0.00 | 98 | 1010.8 |
| 20260904130725 | 23 | 140 | 0.0 | 0.0 | 0.00 | 1.22 | 0.00 | 98 | 1010.7 |
| 20260904130702 | 23 | 141 | 0.0 | 0.0 | 0.00 | 1.22 | 0.00 | 98 | 1010.7 |
| 20260904130523 | 23 | 141 | 0.0 | 0.0 | 0.00 | 1.22 | 0.00 | 98 | 1010.8 |
| 20260904130322 | -17 | 140 | 0.0 | 0.0 | 0.00 | 1.22 | 0.00 | 1010.9 | |
| 20260904130210 | -17 | 141 | 0.0 | 0.0 | 0.00 | 1.22 | 0.00 | 1010.7 | |
| 20260904130202 | -17 | 141 | 0.0 | 0.0 | 0.00 | 1.22 | 0.00 | 1010.9 | |
| 20260904130001 | -17 | 141 | 0.0 | 0.0 | 0.00 | 1.22 | 0.00 | 1010.5 | |
| 20260904125709 | -17 | 0.0 | 0.0 | 0.00 | 0.00 | 0.00 | 1010.7 | ||
| 20260904125331 | -17 | 0.0 | 0.0 | 0.00 | 1.22 | 0.00 | |||
| 20260904125306 | -17 | 0.0 | 0.0 | 0.00 | 1.22 | 0.00 | |||
| 20260904125031 | -17 | 0.0 | 0.0 | 0.00 | 1.22 | 0.00 | |||
| 20260904124805 | -17 | 0.0 | 0.0 | 0.00 | 1.22 | 0.00 | |||
| 20260904124604 | -17 | 0.0 | 0.0 | 0.00 | 1.22 | 0.00 | |||
| 20260904124411 | -17 | 0.0 | 0.0 | 0.00 | 1.22 | 0.00 | |||
| 20260904124233 | -17 | 0.0 | 0.0 | 0.00 | 1.22 | 0.00 | 1010.4 | ||
| 20260904124003 | -17 | 0.0 | 0.0 | 0.00 | 1.22 | 0.00 | 1010.4 | ||
| 20260904123849 | 22 | 127 | 0.0 | 0.0 | 0.00 | 1.22 | 0.00 | 97 | 1010.4 |
| 20260904123746 | 22 | 127 | 0.0 | 0.0 | 0.00 | 1.22 | 0.00 | 97 | 1010.4 |
| 20260904123531 | 22 | 127 | 0.0 | 0.0 | 0.00 | 1.22 | 0.00 | 97 | 1010.4 |
| 20260904123320 | 22 | 127 | 0.0 | 0.0 | 0.00 | 1.22 | 0.00 | 97 | 1010.4 |
| 20260904123230 | 22 | 127 | 0.0 | 0.0 | 0.00 | 1.22 | 0.00 | 97 | 1010.3 |
| 20260904123116 | 22 | 127 | 0.0 | 0.0 | 0.00 | 1.22 | 0.00 | 97 | 1010.4 |
| 20260904122904 | 22 | 127 | 0.0 | 0.0 | 0.00 | 1.22 | 0.00 | 97 | 1010.3 |
| 20260904122800 | 22 | 125 | 0.0 | 0.0 | 0.00 | 1.22 | 0.00 | 97 | 1010.2 |
| 20260904122731 | 22 | 125 | 0.0 | 0.0 | 0.00 | 1.22 | 0.00 | 97 | 1010.3 |
| 20260904122504 | 22 | 125 | 0.0 | 0.0 | 0.00 | 1.22 | 0.00 | 97 | 1010.2 |
| 20260904122404 | 22 | 125 | 0.0 | 0.0 | 0.00 | 1.22 | 0.00 | 97 | 1010.3 |
| 20260904122217 | 22 | 127 | 0.0 | 0.0 | 0.00 | 1.22 | 0.00 | 97 | 1010.3 |
| 20260904122106 | 22 | 127 | 0.0 | 0.0 | 0.00 | 1.22 | 0.00 | 97 | 1010.3 |
| 20260904121905 | 22 | 127 | 0.0 | 0.0 | 0.00 | 1.22 | 0.00 | 97 | 1010.1 |
| 20260904121708 | 22 | 127 | 0.0 | 0.0 | 0.00 | 1.22 | 0.00 | 97 | 1010.2 |
| 20260904121613 | 22 | 125 | 0.0 | 0.0 | 0.00 | 1.22 | 0.00 | 97 | 1010.1 |
| 20260904121518 | 22 | 127 | 0.0 | 0.0 | 0.00 | 1.22 | 0.00 | 97 | 1010.2 |
| 20260904121447 | 22 | 127 | 0.0 | 0.0 | 0.00 | 1.22 | 0.00 | 97 | 1010.2 |
| 20260904121107 | 22 | 127 | 0.0 | 0.0 | 0.00 | 1.22 | 0.00 | 97 | 1010.0 |
| 20260904120902 | 22 | 127 | 0.0 | 0.0 | 0.00 | 1.22 | 0.00 | 97 | 1010.1 |
| 20260904120703 | 22 | 127 | 0.0 | 0.0 | 0.00 | 1.22 | 0.00 | 97 | 1010.0 |
| 20260904120604 | 22 | 127 | 0.0 | 0.0 | 0.00 | 1.22 | 0.00 | 97 | 1010.1 |
| 20260904120440 | 22 | 127 | 0.0 | 0.0 | 0.00 | 1.22 | 0.00 | 97 | 1010.1 |
| 20260904120154 | 22 | 125 | 0.0 | 0.0 | 0.00 | 1.22 | 0.00 | 97 | 1010.1 |
| 20260904115855 | 22 | 127 | 0.0 | 0.0 | 0.00 | 1.22 | 0.00 | 97 | 1010.0 |
| 20260904115708 | 22 | 127 | 0.0 | 0.0 | 0.00 | 1.22 | 0.00 | 97 | 1009.8 |
| 20260904115657 | 22 | 127 | 0.0 | 0.0 | 0.00 | 1.22 | 0.00 | 97 | 1009.8 |
| 20260904115513 | 22 | 127 | 0.0 | 0.0 | 0.00 | 1.22 | 0.00 | 97 | 1009.9 |
| 20260904115502 | 22 | 127 | 0.0 | 0.0 | 0.00 | 1.22 | 0.00 | 97 | 1009.9 |
| 20260904115429 | 22 | 127 | 0.0 | 0.0 | 0.00 | 1.22 | 0.00 | 97 | 1009.9 |
| 20260904115127 | 22 | 127 | 0.0 | 0.0 | 0.00 | 1.22 | 0.00 | 97 | 1010.0 |
| 20260904114834 | 22 | 157 | 0.0 | 0.0 | 0.00 | 1.22 | 0.00 | 97 | 1010.0 |
| 20260904114739 | 22 | 158 | 0.0 | 0.0 | 0.00 | 1.22 | 0.00 | 97 | 1010.0 |
| 20260904114706 | 22 | 158 | 0.0 | 0.0 | 0.00 | 1.22 | 0.00 | 97 | 1010.0 |
| 20260904114426 | 22 | 159 | 0.0 | 0.0 | 0.00 | 1.22 | 0.00 | 97 | 1009.8 |
| 20260904114227 | 22 | 158 | 0.0 | 0.0 | 0.00 | 1.22 | 0.00 | 97 | 1009.9 |
| 20260904114207 | 22 | 158 | 0.0 | 0.0 | 0.00 | 1.22 | 0.00 | 97 | 1009.8 |
| 20260904114024 | 22 | 158 | 0.0 | 0.0 | 0.00 | 1.22 | 0.00 | 97 | 1009.7 |
| 20260904113820 | 22 | 158 | 0.0 | 0.0 | 0.00 | 1.22 | 0.00 | 97 | 1009.8 |
| 20260904113709 | 22 | 157 | 0.0 | 0.0 | 0.00 | 1.22 | 0.00 | 97 | 1009.7 |
| 20260904113619 | 22 | 157 | 0.0 | 0.0 | 0.00 | 1.22 | 0.00 | 97 | 1009.7 |
| 20260904113507 | 22 | 158 | 0.0 | 0.0 | 0.00 | 1.22 | 0.00 | 97 | 1009.9 |
| 20260904113454 | 22 | 158 | 0.0 | 0.0 | 0.00 | 1.22 | 0.00 | 97 | 1009.8 |
| 20260904113427 | 22 | 159 | 0.0 | 0.0 | 0.00 | 1.22 | 0.00 | 97 | 1009.9 |
| 20260904113015 | 22 | 158 | 0.0 | 0.0 | 0.00 | 1.22 | 0.00 | 97 | 1010.0 |
| 20260904112815 | 22 | 158 | 0.0 | 0.0 | 0.00 | 1.22 | 0.00 | 97 | 1009.9 |
| 20260904112726 | 22 | 158 | 0.0 | 0.0 | 0.00 | 1.27 | 0.00 | 97 | 1009.7 |
| 20260904112707 | 22 | 158 | 0.0 | 0.0 | 0.00 | 1.22 | 0.00 | 97 | 1009.8 |
| 20260904112606 | 22 | 158 | 0.0 | 0.0 | 0.00 | 1.24 | 0.00 | 97 | 1009.7 |
| 20260904112536 | 22 | 158 | 0.0 | 0.0 | 0.00 | 1.40 | 0.00 | 97 | 1009.7 |
| 20260904112203 | 22 | 158 | 0.0 | 0.0 | 0.00 | 1.40 | 0.00 | 97 | 1009.7 |
| 20260904112005 | 22 | 158 | 0.0 | 0.0 | 0.00 | 1.40 | 0.00 | 97 | 1009.8 |
| 20260904111807 | 22 | 158 | 0.0 | 0.0 | 0.00 | 1.40 | 0.00 | 96 | 1009.9 |
| 20260904111707 | 22 | 157 | 0.0 | 0.0 | 0.00 | 1.40 | 0.00 | 97 | 1009.9 |
| 20260904111607 | 22 | 158 | 0.0 | 0.0 | 0.00 | 1.40 | 0.00 | 96 | 1009.9 |